Wetterdaten: aktuell Sonntag, 26.05.2019 19:54
Datum Zeit Temp. I. Temp. 2m Temp. 5cm Temp. -10cm Feuchte I. Feuchte 2m Luftdruck Regen Wind Richtung Richtung Taupunkt Windchill Windben
26.05.2019 19:54 22,0 C 20,3 C 17,4 C 16,8 C 53 % 56 % 1016,4 hPa 0,0 l/m 1,0 km/h (0 Bft) S-SO 157 11,2 C 20,3 C 2,1 km/h (1 Bft)
26.05.2019 19:52 22,0 C 20,4 C 17,5 C 16,8 C 53 % 55 % 1016,4 hPa 0,0 l/m 1,4 km/h (1 Bft) SO 135 11,1 C 20,4 C 2,1 km/h (1 Bft)
26.05.2019 19:50 22,0 C 20,4 C 17,5 C 16,8 C 53 % 55 % 1016,4 hPa 0,0 l/m 1,9 km/h (1 Bft) SO 135 11,1 C 20,4 C 2,7 km/h (1 Bft)
26.05.2019 19:48 22,0 C 20,5 C 17,6 C 16,9 C 53 % 55 % 1016,4 hPa 0,0 l/m 1,8 km/h (1 Bft) SO 135 11,1 C 20,5 C 3,7 km/h (1 Bft)
26.05.2019 19:46 22,0 C 20,6 C 17,6 C 16,9 C 53 % 55 % 1016,4 hPa 0,0 l/m 2,1 km/h (1 Bft) O 90 11,2 C 20,6 C 3,7 km/h (1 Bft)
26.05.2019 19:44 22,0 C 20,7 C 17,7 C 16,9 C 53 % 55 % 1016,4 hPa 0,0 l/m 2,1 km/h (1 Bft) O 90 11,3 C 20,7 C 7,3 km/h (2 Bft)
26.05.2019 19:42 22,0 C 20,7 C 17,8 C 16,9 C 53 % 55 % 1016,4 hPa 0,0 l/m 1,9 km/h (1 Bft) O-SO 112 11,3 C 20,7 C 7,3 km/h (2 Bft)
26.05.2019 19:40 22,0 C 20,8 C 17,9 C 16,9 C 53 % 55 % 1016,4 hPa 0,0 l/m 1,6 km/h (1 Bft) O-SO 112 11,4 C 20,8 C 3,5 km/h (1 Bft)
26.05.2019 19:38 22,0 C 20,9 C 17,9 C 16,9 C 53 % 54 % 1016,4 hPa 0,0 l/m 1,6 km/h (1 Bft) O 90 11,2 C 20,9 C 4,2 km/h (1 Bft)
26.05.2019 19:36 22,0 C 21,0 C 18,0 C 16,9 C 53 % 53 % 1016,4 hPa 0,0 l/m 1,9 km/h (1 Bft) O-SO 112 11,0 C 21,0 C 4,2 km/h (1 Bft)
26.05.2019 19:34 22,0 C 21,0 C 18,0 C 16,8 C 53 % 53 % 1016,4 hPa 0,0 l/m 2,3 km/h (1 Bft) SO 135 11,0 C 21,0 C 3,1 km/h (1 Bft)
26.05.2019 19:32 22,0 C 21,2 C 18,2 C 16,8 C 53 % 53 % 1016,4 hPa 0,0 l/m 2,3 km/h (1 Bft) S 180 11,2 C 21,2 C 2,9 km/h (1 Bft)
26.05.2019 19:30 22,0 C 21,2 C 18,2 C 16,8 C 53 % 53 % 1016,5 hPa 0,0 l/m 2,3 km/h (1 Bft) SO 135 11,2 C 21,2 C 4,1 km/h (1 Bft)
26.05.2019 19:28 22,0 C 21,2 C 18,2 C 16,8 C 53 % 53 % 1016,5 hPa 0,0 l/m 2,1 km/h (1 Bft) O 90 11,2 C 21,2 C 6,2 km/h (2 Bft)
26.05.2019 19:26 22,0 C 21,2 C 18,2 C 16,9 C 53 % 53 % 1016,5 hPa 0,0 l/m 1,9 km/h (1 Bft) O 90 11,2 C 21,2 C 6,2 km/h (2 Bft)
26.05.2019 19:24 22,0 C 21,3 C 18,3 C 16,9 C 53 % 52 % 1016,5 hPa 0,0 l/m 1,3 km/h (1 Bft) S-SO 157 11,0 C 21,3 C 4,6 km/h (1 Bft)
26.05.2019 19:22 22,0 C 21,3 C 18,3 C 16,9 C 53 % 52 % 1016,5 hPa 0,0 l/m 0,8 km/h (0 Bft) S-SO 157 11,0 C 21,3 C 1,9 km/h (1 Bft)
26.05.2019 19:20 22,0 C 21,4 C 18,4 C 16,9 C 53 % 52 % 1016,5 hPa 0,0 l/m 1,0 km/h (0 Bft) O-SO 112 11,1 C 21,4 C 1,9 km/h (1 Bft)
26.05.2019 19:18 22,0 C 21,6 C 18,4 C 16,9 C 53 % 52 % 1016,5 hPa 0,0 l/m 1,1 km/h (1 Bft) SO 135 11,3 C 21,6 C 3,7 km/h (1 Bft)
26.05.2019 19:16 22,0 C 21,7 C 18,4 C 16,9 C 53 % 52 % 1016,5 hPa 0,0 l/m 1,4 km/h (1 Bft) SO 135 11,4 C 21,7 C 3,7 km/h (1 Bft)
26.05.2019 19:14 22,0 C 21,7 C 18,6 C 16,8 C 53 % 52 % 1016,5 hPa 0,0 l/m 1,8 km/h (1 Bft) SO 135 11,4 C 21,7 C 0,0 km/h (0 Bft)
26.05.2019 19:12 22,0 C 21,9 C 18,9 C 16,8 C 53 % 52 % 1016,5 hPa 0,0 l/m 2,3 km/h (1 Bft) SO 135 11,6 C 21,9 C 4,2 km/h (1 Bft)
26.05.2019 19:10 22,0 C 21,9 C 18,9 C 16,8 C 53 % 52 % 1016,4 hPa 0,0 l/m 2,6 km/h (1 Bft) S 180 11,6 C 21,9 C 4,2 km/h (1 Bft)
26.05.2019 19:08 22,0 C 22,0 C 19,1 C 16,8 C 53 % 51 % 1016,4 hPa 0,0 l/m 2,3 km/h (1 Bft) O 90 11,4 C 22,0 C 3,5 km/h (1 Bft)
26.05.2019 19:06 22,0 C 22,0 C 19,2 C 16,9 C 53 % 51 % 1016,4 hPa 0,0 l/m 1,9 km/h (1 Bft) SO 135 11,4 C 22,0 C 7,0 km/h (2 Bft)
26.05.2019 19:04 22,0 C 22,1 C 19,3 C 16,9 C 53 % 51 % 1016,4 hPa 0,0 l/m 1,3 km/h (1 Bft) SO 135 11,5 C 22,1 C 7,0 km/h (2 Bft)
26.05.2019 19:02 22,0 C 22,2 C 19,4 C 16,9 C 53 % 50 % 1016,4 hPa 0,0 l/m 0,8 km/h (0 Bft) O-SO 112 11,3 C 22,2 C 4,2 km/h (1 Bft)
26.05.2019 19:00 22,0 C 22,3 C 19,5 C 16,9 C 53 % 49 % 1016,4 hPa 0,0 l/m 0,2 km/h (0 Bft) SO 135 11,1 C 22,3 C 2,5 km/h (1 Bft)
26.05.2019 18:58 22,0 C 22,3 C 19,5 C 16,9 C 53 % 50 % 1016,4 hPa 0,0 l/m 0,3 km/h (0 Bft) SO 135 11,4 C 22,3 C 0,0 km/h (0 Bft)
26.05.2019 18:56 22,0 C 22,3 C 19,6 C 16,9 C 53 % 50 % 1016,4 hPa 0,0 l/m 0,5 km/h (0 Bft) W-NW 292 11,4 C 22,3 C 0,0 km/h (0 Bft)
26.05.2019 18:54 22,0 C 22,3 C 19,6 C 16,9 C 53 % 49 % 1016,4 hPa 0,0 l/m 0,6 km/h (0 Bft) O 90 11,1 C 22,3 C 0,0 km/h (0 Bft)
26.05.2019 18:52 22,0 C 22,4 C 19,8 C 16,9 C 53 % 49 % 1016,4 hPa 0,0 l/m 0,8 km/h (0 Bft) NW 315 11,2 C 22,4 C 0,0 km/h (0 Bft)
26.05.2019 18:50 22,0 C 22,4 C 19,8 C 16,9 C 53 % 49 % 1016,6 hPa 0,0 l/m 1,3 km/h (1 Bft) O-NO 67 11,2 C 22,4 C 3,5 km/h (1 Bft)
26.05.2019 18:48 22,0 C 22,4 C 19,9 C 16,9 C 53 % 49 % 1016,6 hPa 0,0 l/m 1,9 km/h (1 Bft) SO 135 11,2 C 22,4 C 3,5 km/h (1 Bft)
26.05.2019 18:46 22,0 C 22,4 C 20,0 C 16,9 C 53 % 50 % 1016,6 hPa 0,0 l/m 2,7 km/h (1 Bft) NO 45 11,5 C 22,4 C 3,1 km/h (1 Bft)
26.05.2019 18:44 22,0 C 22,4 C 20,0 C 16,9 C 53 % 50 % 1016,6 hPa 0,0 l/m 3,2 km/h (1 Bft) O-NO 67 11,5 C 22,4 C 3,1 km/h (1 Bft)
26.05.2019 18:42 22,0 C 22,4 C 20,2 C 16,9 C 53 % 50 % 1016,6 hPa 0,0 l/m 3,4 km/h (1 Bft) O-SO 112 11,5 C 22,4 C 5,0 km/h (1 Bft)
26.05.2019 18:40 22,0 C 22,4 C 20,3 C 16,9 C 53 % 50 % 1016,6 hPa 0,0 l/m 3,5 km/h (1 Bft) SW 225 11,5 C 22,4 C 7,9 km/h (2 Bft)
26.05.2019 18:38 22,0 C 22,5 C 20,4 C 16,9 C 53 % 50 % 1016,6 hPa 0,0 l/m 3,7 km/h (1 Bft) O-SO 112 11,5 C 22,5 C 8,7 km/h (2 Bft)
26.05.2019 18:36 22,0 C 22,5 C 20,5 C 16,9 C 53 % 50 % 1016,6 hPa 0,0 l/m 3,2 km/h (1 Bft) O 90 11,5 C 22,5 C 8,7 km/h (2 Bft)
26.05.2019 18:34 22,0 C 22,5 C 20,5 C 16,9 C 53 % 51 % 1016,6 hPa 0,0 l/m 2,9 km/h (1 Bft) O-NO 67 11,8 C 22,5 C 5,2 km/h (1 Bft)
26.05.2019 18:32 22,0 C 22,5 C 20,4 C 16,9 C 53 % 51 % 1016,6 hPa 0,0 l/m 2,9 km/h (1 Bft) W-SW 247 11,8 C 22,5 C 2,3 km/h (1 Bft)
26.05.2019 18:30 22,1 C 22,5 C 20,4 C 16,9 C 53 % 51 % 1016,6 hPa 0,0 l/m 2,9 km/h (1 Bft) W-NW 292 11,8 C 22,5 C 5,0 km/h (1 Bft)
26.05.2019 18:28 22,0 C 22,5 C 20,4 C 16,9 C 53 % 49 % 1016,6 hPa 0,0 l/m 3,1 km/h (1 Bft) S-SO 157 11,2 C 22,5 C 7,3 km/h (2 Bft)
26.05.2019 18:26 22,0 C 22,5 C 20,4 C 16,9 C 53 % 51 % 1016,6 hPa 0,0 l/m 2,9 km/h (1 Bft) SO 135 11,8 C 22,5 C 7,3 km/h (2 Bft)
26.05.2019 18:24 22,0 C 22,5 C 20,3 C 16,9 C 53 % 50 % 1016,6 hPa 0,0 l/m 3,2 km/h (1 Bft) O 90 11,5 C 22,5 C 7,0 km/h (2 Bft)
26.05.2019 18:22 22,0 C 22,5 C 20,3 C 16,9 C 53 % 50 % 1016,6 hPa 0,0 l/m 3,7 km/h (1 Bft) SO 135 11,5 C 22,5 C 7,0 km/h (2 Bft)
26.05.2019 18:20 22,0 C 22,5 C 20,4 C 16,9 C 53 % 50 % 1016,6 hPa 0,0 l/m 3,5 km/h (1 Bft) S 180 11,5 C 22,5 C 3,1 km/h (1 Bft)
26.05.2019 18:18 22,0 C 22,5 C 20,4 C 16,9 C 53 % 50 % 1016,6 hPa 0,0 l/m 3,5 km/h (1 Bft) SO 135 11,5 C 22,5 C 5,4 km/h (1 Bft)
26.05.2019 18:16 22,0 C 22,5 C 20,3 C 16,9 C 53 % 50 % 1016,6 hPa 0,0 l/m 2,9 km/h (1 Bft) S-SO 157 11,5 C 22,5 C 7,0 km/h (2 Bft)
26.05.2019 18:14 22,0 C 22,5 C 20,3 C 16,9 C 53 % 50 % 1016,6 hPa 0,0 l/m 2,7 km/h (1 Bft) SO 135 11,5 C 22,5 C 7,0 km/h (2 Bft)
26.05.2019 18:12 22,0 C 22,5 C 20,7 C 16,8 C 53 % 52 % 1016,6 hPa 0,0 l/m 1,9 km/h (1 Bft) SO 135 12,1 C 22,5 C 5,8 km/h (2 Bft)
26.05.2019 18:10 22,0 C 22,5 C 20,7 C 16,8 C 53 % 52 % 1016,8 hPa 0,0 l/m 1,4 km/h (1 Bft) SW 225 12,1 C 22,5 C 5,8 km/h (2 Bft)
26.05.2019 18:08 22,0 C 22,5 C 20,6 C 16,8 C 53 % 50 % 1016,8 hPa 0,0 l/m 1,6 km/h (1 Bft) SO 135 11,5 C 22,5 C 4,6 km/h (1 Bft)
26.05.2019 18:06 22,0 C 22,4 C 20,5 C 16,8 C 53 % 48 % 1016,8 hPa 0,0 l/m 1,6 km/h (1 Bft) O 90 10,8 C 22,4 C 5,2 km/h (1 Bft)
26.05.2019 18:04 22,0 C 22,3 C 20,4 C 16,8 C 53 % 49 % 1016,8 hPa 0,0 l/m 1,9 km/h (1 Bft) O 90 11,1 C 22,3 C 5,2 km/h (1 Bft)
26.05.2019 18:02 22,0 C 22,2 C 20,4 C 16,8 C 53 % 49 % 1016,8 hPa 0,0 l/m 2,1 km/h (1 Bft) NO 45 11,0 C 22,2 C 2,7 km/h (1 Bft)
26.05.2019 18:00 22,0 C 22,1 C 20,4 C 16,8 C 53 % 51 % 1016,8 hPa 0,0 l/m 2,6 km/h (1 Bft) SO 135 11,5 C 22,1 C 7,1 km/h (2 Bft)
26.05.2019 17:58 22,0 C 22,0 C 20,4 C 16,8 C 53 % 52 % 1016,8 hPa 0,0 l/m 2,7 km/h (1 Bft) SO 135 11,7 C 22,0 C 7,1 km/h (2 Bft)
26.05.2019 17:56 22,1 C 22,0 C 20,6 C 16,9 C 53 % 51 % 1016,8 hPa 0,0 l/m 3,1 km/h (1 Bft) O-SO 112 11,4 C 22,0 C 3,7 km/h (1 Bft)
26.05.2019 17:54 22,0 C 22,2 C 20,8 C 16,9 C 53 % 51 % 1016,8 hPa 0,0 l/m 3,9 km/h (1 Bft) W-SW 247 11,6 C 22,2 C 5,8 km/h (2 Bft)
26.05.2019 17:52 22,0 C 22,4 C 21,3 C 16,9 C 53 % 50 % 1016,8 hPa 0,0 l/m 4,5 km/h (1 Bft) O 90 11,5 C 22,4 C 5,8 km/h (2 Bft)
26.05.2019 17:50 22,0 C 22,6 C 21,3 C 16,9 C 53 % 50 % 1016,8 hPa 0,0 l/m 4,5 km/h (1 Bft) O-NO 67 11,6 C 22,6 C 6,4 km/h (2 Bft)
26.05.2019 17:48 22,0 C 22,6 C 21,4 C 16,9 C 53 % 50 % 1016,8 hPa 0,0 l/m 4,2 km/h (1 Bft) SO 135 11,6 C 22,6 C 6,8 km/h (2 Bft)
26.05.2019 17:46 22,1 C 22,7 C 21,5 C 16,9 C 53 % 50 % 1016,8 hPa 0,0 l/m 3,2 km/h (1 Bft) S-SO 157 11,7 C 22,7 C 8,7 km/h (2 Bft)
26.05.2019 17:44 22,0 C 23,0 C 21,6 C 16,9 C 53 % 48 % 1016,8 hPa 0,0 l/m 2,9 km/h (1 Bft) SO 135 11,4 C 23,0 C 8,7 km/h (2 Bft)
26.05.2019 17:42 22,0 C 23,0 C 21,7 C 16,9 C 53 % 49 % 1016,8 hPa 0,0 l/m 2,4 km/h (1 Bft) S-SO 157 11,7 C 23,0 C 5,6 km/h (1 Bft)
26.05.2019 17:40 22,0 C 23,1 C 21,7 C 16,8 C 53 % 48 % 1016,8 hPa 0,0 l/m 2,6 km/h (1 Bft) SO 135 11,5 C 23,1 C 3,9 km/h (1 Bft)
26.05.2019 17:38 22,0 C 23,1 C 21,8 C 16,8 C 53 % 50 % 1016,8 hPa 0,0 l/m 2,6 km/h (1 Bft) SO 135 12,1 C 23,1 C 0,0 km/h (0 Bft)
26.05.2019 17:36 22,1 C 23,1 C 21,8 C 16,8 C 53 % 50 % 1016,8 hPa 0,0 l/m 3,1 km/h (1 Bft) SW 225 12,1 C 23,1 C 3,9 km/h (1 Bft)
26.05.2019 17:34 22,1 C 22,9 C 21,7 C 16,8 C 53 % 50 % 1016,8 hPa 0,0 l/m 3,4 km/h (1 Bft) NO 45 11,9 C 22,9 C 5,6 km/h (1 Bft)
26.05.2019 17:32 22,0 C 22,9 C 21,2 C 16,8 C 53 % 52 % 1016,8 hPa 0,0 l/m 3,2 km/h (1 Bft) NO 45 12,5 C 22,9 C 8,9 km/h (2 Bft)
26.05.2019 17:30 22,1 C 22,7 C 21,2 C 16,8 C 53 % 56 % 1016,9 hPa 0,0 l/m 3,1 km/h (1 Bft) N-NO 22 13,5 C 22,7 C 8,9 km/h (2 Bft)
26.05.2019 17:28 22,0 C 22,5 C 21,1 C 16,8 C 53 % 51 % 1016,9 hPa 0,0 l/m 2,7 km/h (1 Bft) NO 45 11,8 C 22,5 C 3,7 km/h (1 Bft)
26.05.2019 17:26 22,0 C 22,3 C 21,1 C 16,8 C 53 % 52 % 1016,9 hPa 0,0 l/m 2,9 km/h (1 Bft) O-NO 67 12,0 C 22,3 C 3,1 km/h (1 Bft)
26.05.2019 17:24 22,1 C 22,4 C 21,3 C 16,8 C 53 % 53 % 1016,9 hPa 0,0 l/m 3,2 km/h (1 Bft) SO 135 12,3 C 22,4 C 4,4 km/h (1 Bft)
26.05.2019 17:22 22,0 C 22,5 C 21,3 C 16,8 C 53 % 51 % 1016,9 hPa 0,0 l/m 3,4 km/h (1 Bft) O 90 11,8 C 22,5 C 5,8 km/h (2 Bft)
26.05.2019 17:20 22,1 C 22,7 C 21,4 C 16,8 C 53 % 49 % 1016,9 hPa 0,0 l/m 3,7 km/h (1 Bft) O 90 11,4 C 22,7 C 5,8 km/h (2 Bft)
26.05.2019 17:18 22,1 C 22,8 C 21,4 C 16,8 C 53 % 49 % 1016,9 hPa 0,0 l/m 4,2 km/h (1 Bft) SO 135 11,5 C 22,8 C 4,6 km/h (1 Bft)
26.05.2019 17:16 22,1 C 22,9 C 21,5 C 16,8 C 53 % 51 % 1016,9 hPa 0,0 l/m 4,2 km/h (1 Bft) O 90 12,2 C 22,9 C 7,9 km/h (2 Bft)
26.05.2019 17:14 22,0 C 23,3 C 21,8 C 16,8 C 53 % 49 % 1016,9 hPa 0,0 l/m 4,0 km/h (1 Bft) O 90 12,0 C 23,3 C 7,9 km/h (2 Bft)
26.05.2019 17:12 22,0 C 23,2 C 21,7 C 16,8 C 53 % 48 % 1016,9 hPa 0,0 l/m 4,0 km/h (1 Bft) SO 135 11,6 C 23,2 C 7,0 km/h (2 Bft)
26.05.2019 17:10 22,1 C 23,1 C 21,7 C 16,8 C 53 % 49 % 1016,8 hPa 0,0 l/m 5,1 km/h (1 Bft) S-SO 157 11,8 C 23,1 C 8,5 km/h (2 Bft)
26.05.2019 17:08 22,1 C 23,0 C 21,8 C 16,8 C 53 % 49 % 1016,8 hPa 0,0 l/m 5,5 km/h (1 Bft) SO 135 11,7 C 23,0 C 9,3 km/h (2 Bft)
26.05.2019 17:06 22,1 C 22,9 C 21,8 C 16,7 C 53 % 51 % 1016,8 hPa 0,0 l/m 6,0 km/h (2 Bft) S 180 12,2 C 22,9 C 9,3 km/h (2 Bft)
26.05.2019 17:04 22,1 C 23,3 C 21,8 C 16,7 C 53 % 46 % 1016,8 hPa 0,0 l/m 6,4 km/h (2 Bft) SO 135 11,0 C 23,3 C 5,8 km/h (2 Bft)
26.05.2019 17:02 22,1 C 23,3 C 21,8 C 16,7 C 53 % 47 % 1016,8 hPa 0,0 l/m 6,1 km/h (2 Bft) SO 135 11,3 C 23,3 C 9,5 km/h (2 Bft)
26.05.2019 17:00 22,1 C 23,4 C 21,8 C 16,7 C 53 % 48 % 1016,8 hPa 0,0 l/m 6,0 km/h (2 Bft) S-SW 202 11,8 C 23,4 C 12,4 km/h (3 Bft)
26.05.2019 16:58 22,1 C 23,3 C 21,8 C 16,7 C 53 % 48 % 1016,8 hPa 0,0 l/m 5,3 km/h (1 Bft) S-SO 157 11,7 C 23,3 C 12,4 km/h (3 Bft)
26.05.2019 16:56 22,0 C 23,3 C 21,7 C 16,7 C 53 % 48 % 1016,8 hPa 0,0 l/m 4,7 km/h (1 Bft) O 90 11,7 C 23,3 C 10,8 km/h (2 Bft)
26.05.2019 16:54 22,1 C 23,2 C 21,8 C 16,8 C 53 % 49 % 1016,8 hPa 0,0 l/m 4,3 km/h (1 Bft) O 90 11,9 C 23,2 C 6,2 km/h (2 Bft)
26.05.2019 16:52 22,0 C 23,2 C 21,5 C 16,8 C 53 % 47 % 1016,8 hPa 0,0 l/m 5,1 km/h (1 Bft) O-SO 112 11,3 C 23,2 C 10,0 km/h (2 Bft)
26.05.2019 16:50 22,0 C 23,1 C 21,5 C 16,8 C 53 % 49 % 1016,8 hPa 0,0 l/m 5,0 km/h (1 Bft) N 360 11,8 C 23,1 C 10,0 km/h (2 Bft)
26.05.2019 16:48 22,0 C 23,1 C 21,6 C 16,8 C 53 % 48 % 1016,8 hPa 0,0 l/m 4,8 km/h (1 Bft) O-NO 67 11,5 C 23,1 C 4,4 km/h (1 Bft)
26.05.2019 16:46 22,1 C 23,1 C 21,8 C 16,8 C 53 % 48 % 1016,8 hPa 0,0 l/m 4,8 km/h (1 Bft) S-SO 157 11,5 C 23,1 C 6,2 km/h (2 Bft)
26.05.2019 16:44 22,0 C 23,2 C 22,0 C 16,8 C 53 % 50 % 1016,8 hPa 0,0 l/m 4,7 km/h (1 Bft) O 90 12,2 C 23,2 C 14,1 km/h (3 Bft)
26.05.2019 16:42 22,1 C 23,2 C 22,1 C 16,8 C 53 % 47 % 1016,8 hPa 0,0 l/m 4,8 km/h (1 Bft) NO 45 11,3 C 23,2 C 14,1 km/h (3 Bft)
26.05.2019 16:40 22,1 C 23,2 C 22,1 C 16,8 C 53 % 48 % 1016,8 hPa 0,0 l/m 4,7 km/h (1 Bft) N-NW 337 11,6 C 23,2 C 4,4 km/h (1 Bft)
26.05.2019 16:38 22,1 C 23,3 C 22,2 C 16,8 C 53 % 46 % 1016,8 hPa 0,0 l/m 4,7 km/h (1 Bft) O 90 11,0 C 23,3 C 7,5 km/h (2 Bft)
26.05.2019 16:36 22,1 C 23,3 C 22,2 C 16,8 C 53 % 47 % 1016,8 hPa 0,0 l/m 4,7 km/h (1 Bft) O-NO 67 11,3 C 23,3 C 9,1 km/h (2 Bft)
26.05.2019 16:34 22,1 C 23,3 C 22,3 C 16,8 C 53 % 46 % 1016,8 hPa 0,0 l/m 4,8 km/h (1 Bft) SO 135 11,0 C 23,3 C 9,3 km/h (2 Bft)
26.05.2019 16:32 22,1 C 23,3 C 22,5 C 16,7 C 53 % 51 % 1016,8 hPa 0,0 l/m 4,3 km/h (1 Bft) S-SO 157 12,6 C 23,3 C 9,3 km/h (2 Bft)
26.05.2019 16:30 22,1 C 23,3 C 22,5 C 16,7 C 53 % 48 % 1017,0 hPa 0,0 l/m 3,1 km/h (1 Bft) W-SW 247 11,7 C 23,3 C 7,7 km/h (2 Bft)
26.05.2019 16:28 22,1 C 23,3 C 22,5 C 16,7 C 53 % 48 % 1017,0 hPa 0,0 l/m 2,7 km/h (1 Bft) SO 135 11,7 C 23,3 C 7,7 km/h (2 Bft)
26.05.2019 16:26 22,0 C 23,4 C 22,6 C 16,7 C 53 % 46 % 1017,0 hPa 0,0 l/m 3,1 km/h (1 Bft) S-SO 157 11,1 C 23,4 C 4,1 km/h (1 Bft)
26.05.2019 16:24 22,1 C 23,5 C 22,7 C 16,7 C 53 % 50 % 1017,0 hPa 0,0 l/m 3,1 km/h (1 Bft) N-NW 337 12,5 C 23,5 C 6,8 km/h (2 Bft)
26.05.2019 16:22 22,1 C 23,4 C 22,8 C 16,7 C 53 % 49 % 1017,0 hPa 0,0 l/m 3,1 km/h (1 Bft) N-NW 337 12,1 C 23,4 C 6,8 km/h (2 Bft)
26.05.2019 16:20 22,1 C 23,4 C 22,7 C 16,7 C 53 % 48 % 1017,0 hPa 0,0 l/m 3,4 km/h (1 Bft) W-NW 292 11,8 C 23,4 C 2,3 km/h (1 Bft)
26.05.2019 16:18 22,1 C 23,3 C 22,7 C 16,7 C 53 % 52 % 1017,0 hPa 0,0 l/m 3,5 km/h (1 Bft) O 90 12,9 C 23,3 C 5,2 km/h (1 Bft)
26.05.2019 16:16 22,1 C 23,3 C 22,6 C 16,7 C 53 % 47 % 1017,0 hPa 0,0 l/m 3,4 km/h (1 Bft) NO 45 11,3 C 23,3 C 7,3 km/h (2 Bft)
26.05.2019 16:14 22,1 C 23,4 C 22,6 C 16,7 C 53 % 48 % 1017,0 hPa 0,0 l/m 3,2 km/h (1 Bft) N 360 11,8 C 23,4 C 8,7 km/h (2 Bft)
26.05.2019 16:12 22,1 C 23,4 C 22,3 C 16,6 C 53 % 49 % 1017,0 hPa 0,0 l/m 2,7 km/h (1 Bft) O 90 12,1 C 23,4 C 8,7 km/h (2 Bft)
26.05.2019 16:10 22,0 C 23,3 C 22,3 C 16,6 C 53 % 49 % 1017,0 hPa 0,0 l/m 2,3 km/h (1 Bft) O-SO 112 12,0 C 23,3 C 8,5 km/h (2 Bft)
26.05.2019 16:08 22,0 C 23,2 C 22,0 C 16,7 C 53 % 50 % 1017,0 hPa 0,0 l/m 1,8 km/h (1 Bft) S-SW 202 12,2 C 23,2 C 4,4 km/h (1 Bft)
26.05.2019 16:06 22,0 C 23,0 C 21,7 C 16,7 C 53 % 49 % 1017,0 hPa 0,0 l/m 1,9 km/h (1 Bft) N 360 11,7 C 23,0 C 6,6 km/h (2 Bft)
26.05.2019 16:04 22,1 C 22,8 C 21,5 C 16,7 C 53 % 51 % 1017,0 hPa 0,0 l/m 2,1 km/h (1 Bft) S-SW 202 12,1 C 22,8 C 6,6 km/h (2 Bft)
26.05.2019 16:02 22,1 C 22,6 C 21,3 C 16,7 C 53 % 50 % 1017,0 hPa 0,0 l/m 1,9 km/h (1 Bft) O-SO 112 11,6 C 22,6 C 3,7 km/h (1 Bft)
26.05.2019 16:00 22,1 C 22,5 C 21,4 C 16,7 C 53 % 49 % 1017,0 hPa 0,0 l/m 2,3 km/h (1 Bft) S 180 11,2 C 22,5 C 3,7 km/h (1 Bft)
26.05.2019 15:58 22,0 C 22,7 C 21,6 C 16,7 C 53 % 49 % 1017,0 hPa 0,0 l/m 2,6 km/h (1 Bft) NW 315 11,4 C 22,7 C 5,6 km/h (1 Bft)
26.05.2019 15:56 22,1 C 23,0 C 21,7 C 16,7 C 53 % 44 % 1017,0 hPa 0,0 l/m 2,9 km/h (1 Bft) N-NO 22 10,1 C 23,0 C 5,6 km/h (1 Bft)
26.05.2019 15:54 22,1 C 23,1 C 21,8 C 16,7 C 53 % 52 % 1017,0 hPa 0,0 l/m 3,1 km/h (1 Bft) O 90 12,7 C 23,1 C 5,4 km/h (1 Bft)
26.05.2019 15:52 22,0 C 23,1 C 21,8 C 16,7 C 53 % 46 % 1017,0 hPa 0,0 l/m 3,4 km/h (1 Bft) S-SW 202 10,8 C 23,1 C 4,6 km/h (1 Bft)
26.05.2019 15:50 22,0 C 23,1 C 21,8 C 16,7 C 53 % 44 % 1017,2 hPa 0,0 l/m 3,5 km/h (1 Bft) O-SO 112 10,2 C 23,1 C 4,8 km/h (1 Bft)
26.05.2019 15:48 22,1 C 23,1 C 21,7 C 16,6 C 53 % 49 % 1017,2 hPa 0,0 l/m 3,9 km/h (1 Bft) O-SO 112 11,8 C 23,1 C 7,7 km/h (2 Bft)
26.05.2019 15:46 22,0 C 23,1 C 21,9 C 16,6 C 53 % 48 % 1017,2 hPa 0,0 l/m 4,2 km/h (1 Bft) O 90 11,5 C 23,1 C 7,7 km/h (2 Bft)
26.05.2019 15:44 22,0 C 23,1 C 22,2 C 16,6 C 53 % 46 % 1017,2 hPa 0,0 l/m 4,3 km/h (1 Bft) O-SO 112 10,8 C 23,1 C 7,3 km/h (2 Bft)
26.05.2019 15:42 22,0 C 23,1 C 22,3 C 16,6 C 53 % 48 % 1017,2 hPa 0,0 l/m 4,2 km/h (1 Bft) S-SO 157 11,5 C 23,1 C 5,8 km/h (2 Bft)
26.05.2019 15:40 22,0 C 22,9 C 22,3 C 16,6 C 53 % 50 % 1017,2 hPa 0,0 l/m 4,2 km/h (1 Bft) O-NO 67 11,9 C 22,9 C 5,8 km/h (2 Bft)
26.05.2019 15:38 22,0 C 22,9 C 22,3 C 16,6 C 53 % 49 % 1017,2 hPa 0,0 l/m 4,5 km/h (1 Bft) O 90 11,6 C 22,9 C 6,6 km/h (2 Bft)
26.05.2019 15:36 22,0 C 23,0 C 22,4 C 16,6 C 53 % 47 % 1017,2 hPa 0,0 l/m 4,8 km/h (1 Bft) SO 135 11,1 C 23,0 C 7,9 km/h (2 Bft)
26.05.2019 15:34 22,0 C 23,1 C 22,3 C 16,6 C 53 % 48 % 1017,2 hPa 0,0 l/m 5,3 km/h (1 Bft) O-SO 112 11,5 C 23,1 C 7,9 km/h (2 Bft)
26.05.2019 15:32 22,1 C 23,1 C 22,1 C 16,6 C 53 % 44 % 1017,2 hPa 0,0 l/m 5,1 km/h (1 Bft) O 90 10,2 C 23,1 C 5,0 km/h (1 Bft)
26.05.2019 15:30 22,1 C 23,2 C 22,1 C 16,6 C 53 % 45 % 1017,4 hPa 0,0 l/m 5,1 km/h (1 Bft) SW 225 10,6 C 23,2 C 8,9 km/h (2 Bft)
26.05.2019 15:28 22,0 C 23,2 C 22,1 C 16,6 C 53 % 48 % 1017,4 hPa 0,0 l/m 5,1 km/h (1 Bft) SO 135 11,6 C 23,2 C 10,0 km/h (2 Bft)
26.05.2019 15:26 22,0 C 23,1 C 22,1 C 16,5 C 53 % 48 % 1017,4 hPa 0,0 l/m 5,0 km/h (1 Bft) SO 135 11,5 C 23,1 C 10,0 km/h (2 Bft)
26.05.2019 15:24 22,0 C 23,1 C 22,1 C 16,5 C 53 % 49 % 1017,4 hPa 0,0 l/m 5,0 km/h (1 Bft) SO 135 11,8 C 23,1 C 6,2 km/h (2 Bft)
26.05.2019 15:22 22,1 C 22,9 C 22,1 C 16,5 C 53 % 52 % 1017,4 hPa 0,0 l/m 4,5 km/h (1 Bft) S 180 12,5 C 22,9 C 5,2 km/h (1 Bft)
26.05.2019 15:20 22,0 C 22,6 C 22,1 C 16,5 C 53 % 52 % 1017,4 hPa 0,0 l/m 4,3 km/h (1 Bft) O-SO 112 12,2 C 22,6 C 6,8 km/h (2 Bft)
26.05.2019 15:18 22,0 C 22,4 C 22,1 C 16,5 C 52 % 52 % 1017,4 hPa 0,0 l/m 4,5 km/h (1 Bft) S-SO 157 12,1 C 22,4 C 10,0 km/h (2 Bft)
26.05.2019 15:16 22,0 C 22,3 C 22,2 C 16,5 C 53 % 53 % 1017,4 hPa 0,0 l/m 4,3 km/h (1 Bft) W-SW 247 12,2 C 22,3 C 10,4 km/h (2 Bft)
26.05.2019 15:14 22,0 C 22,4 C 22,6 C 16,5 C 53 % 50 % 1017,4 hPa 0,0 l/m 3,5 km/h (1 Bft) SO 135 11,5 C 22,4 C 10,4 km/h (2 Bft)
26.05.2019 15:12 22,0 C 22,2 C 22,4 C 16,5 C 53 % 58 % 1017,4 hPa 0,0 l/m 3,4 km/h (1 Bft) O-NO 67 13,5 C 22,2 C 4,6 km/h (1 Bft)
26.05.2019 15:10 22,0 C 21,8 C 22,4 C 16,5 C 53 % 52 % 1017,6 hPa 0,0 l/m 3,4 km/h (1 Bft) O 90 11,5 C 21,8 C 7,9 km/h (2 Bft)
26.05.2019 15:08 22,0 C 21,9 C 22,4 C 16,5 C 53 % 51 % 1017,6 hPa 0,0 l/m 3,5 km/h (1 Bft) O-SO 112 11,3 C 21,9 C 7,9 km/h (2 Bft)
26.05.2019 15:06 22,0 C 22,1 C 22,6 C 16,4 C 53 % 53 % 1017,6 hPa 0,0 l/m 3,5 km/h (1 Bft) SO 135 12,1 C 22,1 C 7,0 km/h (2 Bft)
26.05.2019 15:04 22,0 C 22,2 C 22,6 C 16,4 C 52 % 53 % 1017,6 hPa 0,0 l/m 3,5 km/h (1 Bft) O 90 12,2 C 22,2 C 2,9 km/h (1 Bft)
26.05.2019 15:02 22,0 C 22,2 C 22,9 C 16,4 C 53 % 51 % 1017,6 hPa 0,0 l/m 3,4 km/h (1 Bft) N-NO 22 11,6 C 22,2 C 4,2 km/h (1 Bft)
26.05.2019 15:00 22,0 C 22,4 C 23,3 C 16,4 C 53 % 52 % 1017,6 hPa 0,0 l/m 3,5 km/h (1 Bft) O-NO 67 12,1 C 22,4 C 5,6 km/h (1 Bft)
26.05.2019 14:58 22,0 C 22,6 C 23,6 C 16,4 C 53 % 51 % 1017,6 hPa 0,0 l/m 4,0 km/h (1 Bft) N 360 11,9 C 22,6 C 11,4 km/h (2 Bft)
26.05.2019 14:56 22,0 C 22,7 C 24,2 C 16,4 C 52 % 49 % 1017,6 hPa 0,0 l/m 3,9 km/h (1 Bft) O-NO 67 11,4 C 22,7 C 11,4 km/h (2 Bft)
26.05.2019 14:54 22,0 C 23,0 C 24,7 C 16,4 C 52 % 50 % 1017,6 hPa 0,0 l/m 3,9 km/h (1 Bft) N 360 12,0 C 23,0 C 3,9 km/h (1 Bft)
26.05.2019 14:52 22,0 C 22,6 C 24,4 C 16,3 C 53 % 52 % 1017,6 hPa 0,0 l/m 4,2 km/h (1 Bft) S-SW 202 12,2 C 22,6 C 8,1 km/h (2 Bft)
26.05.2019 14:50 22,0 C 22,5 C 24,4 C 16,3 C 53 % 53 % 1017,6 hPa 0,0 l/m 5,3 km/h (1 Bft) O 90 12,4 C 22,5 C 8,1 km/h (2 Bft)
26.05.2019 14:48 22,0 C 22,8 C 24,6 C 16,3 C 53 % 51 % 1017,6 hPa 0,0 l/m 5,8 km/h (2 Bft) O-NO 67 12,1 C 22,8 C 6,6 km/h (2 Bft)
26.05.2019 14:46 22,0 C 22,8 C 24,8 C 16,3 C 53 % 53 % 1017,6 hPa 0,0 l/m 6,1 km/h (2 Bft) O 90 12,7 C 22,8 C 5,4 km/h (1 Bft)
26.05.2019 14:44 22,0 C 22,9 C 24,7 C 16,4 C 53 % 50 % 1017,6 hPa 0,0 l/m 6,1 km/h (2 Bft) O 90 11,9 C 22,9 C 7,0 km/h (2 Bft)
26.05.2019 14:42 22,0 C 22,9 C 24,5 C 16,3 C 53 % 51 % 1017,6 hPa 0,0 l/m 6,3 km/h (2 Bft) S-SO 157 12,2 C 22,9 C 11,0 km/h (2 Bft)
26.05.2019 14:40 22,0 C 22,7 C 24,4 C 16,3 C 53 % 58 % 1017,6 hPa 0,0 l/m 6,0 km/h (2 Bft) O-NO 67 14,0 C 22,7 C 11,0 km/h (2 Bft)
26.05.2019 14:38 22,0 C 22,6 C 24,4 C 16,3 C 53 % 51 % 1017,6 hPa 0,0 l/m 6,0 km/h (2 Bft) O-SO 112 11,9 C 22,6 C 8,3 km/h (2 Bft)
26.05.2019 14:36 22,0 C 22,5 C 24,4 C 16,3 C 53 % 58 % 1017,6 hPa 0,0 l/m 4,5 km/h (1 Bft) SO 135 13,8 C 22,5 C 7,7 km/h (2 Bft)
26.05.2019 14:34 22,0 C 22,0 C 24,3 C 16,3 C 53 % 56 % 1017,6 hPa 0,0 l/m 4,2 km/h (1 Bft) SO 135 12,8 C 22,0 C 7,7 km/h (2 Bft)
26.05.2019 14:32 22,1 C 22,3 C 25,2 C 16,2 C 53 % 52 % 1017,6 hPa 0,0 l/m 4,2 km/h (1 Bft) SW 225 12,0 C 22,3 C 8,9 km/h (2 Bft)
26.05.2019 14:30 22,0 C 22,6 C 25,2 C 16,2 C 52 % 52 % 1017,9 hPa 0,0 l/m 3,7 km/h (1 Bft) S-SO 157 12,2 C 22,6 C 11,4 km/h (2 Bft)
26.05.2019 14:28 22,0 C 22,6 C 25,2 C 16,2 C 53 % 52 % 1017,9 hPa 0,0 l/m 3,7 km/h (1 Bft) O 90 12,2 C 22,6 C 11,4 km/h (2 Bft)
26.05.2019 14:26 22,0 C 22,5 C 25,2 C 16,2 C 53 % 53 % 1017,9 hPa 0,0 l/m 3,9 km/h (1 Bft) NW 315 12,4 C 22,5 C 3,7 km/h (1 Bft)
26.05.2019 14:24 22,0 C 22,4 C 25,4 C 16,2 C 53 % 52 % 1017,9 hPa 0,0 l/m 4,5 km/h (1 Bft) NO 45 12,1 C 22,4 C 7,3 km/h (2 Bft)
26.05.2019 14:22 22,0 C 22,2 C 25,4 C 16,2 C 53 % 53 % 1017,9 hPa 0,0 l/m 4,5 km/h (1 Bft) SO 135 12,2 C 22,2 C 7,3 km/h (2 Bft)
26.05.2019 14:20 22,0 C 22,4 C 25,5 C 16,2 C 53 % 52 % 1017,9 hPa 0,0 l/m 4,8 km/h (1 Bft) SO 135 12,1 C 22,4 C 7,1 km/h (2 Bft)
26.05.2019 14:18 22,0 C 22,4 C 25,4 C 16,3 C 52 % 53 % 1017,9 hPa 0,0 l/m 5,0 km/h (1 Bft) SO 135 12,3 C 22,4 C 5,2 km/h (1 Bft)
26.05.2019 14:16 22,0 C 22,4 C 25,3 C 16,2 C 53 % 53 % 1017,9 hPa 0,0 l/m 4,8 km/h (1 Bft) O 90 12,3 C 22,4 C 5,4 km/h (1 Bft)
26.05.2019 14:14 22,0 C 22,6 C 25,4 C 16,2 C 52 % 53 % 1017,9 hPa 0,0 l/m 4,8 km/h (1 Bft) SO 135 12,5 C 22,6 C 8,9 km/h (2 Bft)
26.05.2019 14:12 22,0 C 22,9 C 25,2 C 16,2 C 53 % 52 % 1017,9 hPa 0,0 l/m 4,3 km/h (1 Bft) SO 135 12,5 C 22,9 C 8,9 km/h (2 Bft)
26.05.2019 14:10 22,0 C 22,9 C 25,2 C 16,2 C 53 % 52 % 1018,1 hPa 0,0 l/m 4,3 km/h (1 Bft) S-SO 157 12,5 C 22,9 C 8,7 km/h (2 Bft)
26.05.2019 14:08 22,0 C 22,8 C 24,8 C 16,2 C 53 % 53 % 1018,1 hPa 0,0 l/m 4,3 km/h (1 Bft) W-SW 247 12,7 C 22,8 C 6,2 km/h (2 Bft)
26.05.2019 14:06 22,0 C 22,5 C 24,6 C 16,2 C 52 % 56 % 1018,1 hPa 0,0 l/m 4,5 km/h (1 Bft) S-SO 157 13,3 C 22,5 C 8,5 km/h (2 Bft)
26.05.2019 14:04 22,0 C 22,1 C 24,5 C 16,2 C 52 % 53 % 1018,1 hPa 0,0 l/m 4,8 km/h (1 Bft) O-SO 112 12,1 C 22,1 C 8,5 km/h (2 Bft)
26.05.2019 14:02 22,0 C 21,9 C 24,2 C 16,1 C 52 % 53 % 1018,1 hPa 0,0 l/m 5,3 km/h (1 Bft) W-NW 292 11,9 C 21,9 C 5,8 km/h (2 Bft)
26.05.2019 14:00 22,0 C 21,8 C 23,9 C 16,1 C 53 % 55 % 1018,1 hPa 0,0 l/m 5,8 km/h (2 Bft) SO 135 12,4 C 21,8 C 5,8 km/h (2 Bft)
26.05.2019 13:58 22,0 C 21,8 C 23,4 C 16,1 C 53 % 52 % 1018,1 hPa 0,0 l/m 5,6 km/h (1 Bft) SO 135 11,5 C 21,8 C 5,2 km/h (1 Bft)
26.05.2019 13:56 22,0 C 21,8 C 23,3 C 16,1 C 52 % 56 % 1018,1 hPa 0,0 l/m 5,3 km/h (1 Bft) S-SO 157 12,6 C 21,8 C 7,7 km/h (2 Bft)
26.05.2019 13:54 22,0 C 21,6 C 23,1 C 16,1 C 52 % 55 % 1018,1 hPa 0,0 l/m 4,8 km/h (1 Bft) S-SW 202 12,2 C 21,6 C 10,6 km/h (2 Bft)
26.05.2019 13:52 22,0 C 21,8 C 23,1 C 16,1 C 52 % 55 % 1018,1 hPa 0,0 l/m 5,0 km/h (1 Bft) O 90 12,4 C 21,8 C 12,2 km/h (2 Bft)
26.05.2019 13:50 22,0 C 21,8 C 23,1 C 16,1 C 53 % 55 % 1018,5 hPa 0,0 l/m 4,2 km/h (1 Bft) O-SO 112 12,4 C 21,8 C 12,2 km/h (2 Bft)
26.05.2019 13:48 22,0 C 22,1 C 23,2 C 16,1 C 52 % 52 % 1018,5 hPa 0,0 l/m 4,0 km/h (1 Bft) S-SW 202 11,8 C 22,1 C 7,3 km/h (2 Bft)
26.05.2019 13:46 22,0 C 22,4 C 23,2 C 16,1 C 52 % 55 % 1018,5 hPa 0,0 l/m 4,5 km/h (1 Bft) N 360 12,9 C 22,4 C 7,0 km/h (2 Bft)
26.05.2019 13:44 22,0 C 21,9 C 23,2 C 16,1 C 52 % 59 % 1018,5 hPa 0,0 l/m 4,7 km/h (1 Bft) O-NO 67 13,5 C 21,9 C 8,7 km/h (2 Bft)
26.05.2019 13:42 22,0 C 21,8 C 23,0 C 16,1 C 53 % 53 % 1018,5 hPa 0,0 l/m 5,0 km/h (1 Bft) O 90 11,8 C 21,8 C 8,9 km/h (2 Bft)
26.05.2019 13:40 22,0 C 21,8 C 22,9 C 16,1 C 53 % 55 % 1018,5 hPa 0,0 l/m 5,0 km/h (1 Bft) SO 135 12,4 C 21,8 C 9,8 km/h (2 Bft)
26.05.2019 13:38 22,0 C 21,8 C 22,9 C 16,1 C 53 % 53 % 1018,5 hPa 0,0 l/m 4,8 km/h (1 Bft) SO 135 11,8 C 21,8 C 9,8 km/h (2 Bft)
26.05.2019 13:36 22,0 C 21,5 C 22,9 C 16,1 C 53 % 59 % 1018,5 hPa 0,0 l/m 4,7 km/h (1 Bft) O 90 13,1 C 21,5 C 7,7 km/h (2 Bft)
26.05.2019 13:34 22,0 C 21,7 C 22,9 C 16,0 C 53 % 51 % 1018,5 hPa 0,0 l/m 5,1 km/h (1 Bft) O-SO 112 11,1 C 21,7 C 9,1 km/h (2 Bft)
26.05.2019 13:32 22,0 C 22,1 C 23,3 C 16,0 C 53 % 53 % 1018,5 hPa 0,0 l/m 5,6 km/h (1 Bft) SO 135 12,1 C 22,1 C 9,8 km/h (2 Bft)
26.05.2019 13:30 22,0 C 22,1 C 23,3 C 16,0 C 53 % 53 % 1018,6 hPa 0,0 l/m 5,6 km/h (1 Bft) O 90 12,1 C 22,1 C 9,8 km/h (2 Bft)
26.05.2019 13:28 22,0 C 21,9 C 23,2 C 16,0 C 53 % 53 % 1018,6 hPa 0,0 l/m 5,8 km/h (2 Bft) S 180 11,9 C 21,9 C 6,6 km/h (2 Bft)
26.05.2019 13:26 22,0 C 21,8 C 23,1 C 16,0 C 53 % 52 % 1018,6 hPa 0,0 l/m 6,1 km/h (2 Bft) O-NO 67 11,5 C 21,8 C 11,2 km/h (2 Bft)
26.05.2019 13:24 22,0 C 21,9 C 23,4 C 16,0 C 53 % 52 % 1018,6 hPa 0,0 l/m 6,4 km/h (2 Bft) O-NO 67 11,6 C 21,9 C 11,2 km/h (2 Bft)
26.05.2019 13:22 22,0 C 21,8 C 23,3 C 16,0 C 53 % 56 % 1018,6 hPa 0,0 l/m 5,8 km/h (2 Bft) O 90 12,6 C 21,8 C 10,4 km/h (2 Bft)
26.05.2019 13:20 22,0 C 21,7 C 22,9 C 16,0 C 53 % 57 % 1018,6 hPa 0,0 l/m 5,8 km/h (2 Bft) SO 135 12,8 C 21,7 C 11,4 km/h (2 Bft)
26.05.2019 13:18 22,0 C 21,6 C 22,8 C 16,0 C 53 % 53 % 1018,6 hPa 0,0 l/m 5,8 km/h (2 Bft) N 360 11,6 C 21,6 C 11,4 km/h (2 Bft)
26.05.2019 13:16 22,0 C 21,7 C 22,9 C 16,0 C 53 % 53 % 1018,6 hPa 0,0 l/m 6,3 km/h (2 Bft) NO 45 11,7 C 21,7 C 10,4 km/h (2 Bft)
26.05.2019 13:14 22,0 C 21,6 C 22,8 C 15,9 C 53 % 53 % 1018,6 hPa 0,0 l/m 5,8 km/h (2 Bft) O-NO 67 11,6 C 21,6 C 8,5 km/h (2 Bft)
26.05.2019 13:12 22,0 C 21,3 C 22,8 C 16,0 C 53 % 57 % 1018,6 hPa 0,0 l/m 5,3 km/h (1 Bft) NO 45 12,4 C 21,3 C 8,9 km/h (2 Bft)
26.05.2019 13:10 22,0 C 21,3 C 22,8 C 16,0 C 53 % 57 % 1018,9 hPa 0,0 l/m 5,1 km/h (1 Bft) S 180 12,4 C 21,3 C 9,8 km/h (2 Bft)
26.05.2019 13:08 22,0 C 21,3 C 22,8 C 16,0 C 53 % 53 % 1018,9 hPa 0,0 l/m 6,3 km/h (2 Bft) O-NO 67 11,3 C 21,3 C 9,8 km/h (2 Bft)
26.05.2019 13:06 22,0 C 21,4 C 22,7 C 16,0 C 53 % 57 % 1018,9 hPa 0,0 l/m 6,0 km/h (2 Bft) N 360 12,5 C 21,4 C 9,3 km/h (2 Bft)
26.05.2019 13:04 22,0 C 21,3 C 22,8 C 16,0 C 53 % 55 % 1018,9 hPa 0,0 l/m 6,4 km/h (2 Bft) O-SO 112 11,9 C 21,3 C 7,7 km/h (2 Bft)
26.05.2019 13:02 22,0 C 21,4 C 22,8 C 16,0 C 53 % 52 % 1018,9 hPa 0,0 l/m 6,4 km/h (2 Bft) N 360 11,1 C 21,4 C 8,1 km/h (2 Bft)
26.05.2019 13:00 22,0 C 21,5 C 22,7 C 16,0 C 53 % 55 % 1018,9 hPa 0,0 l/m 7,2 km/h (2 Bft) O 90 12,1 C 21,2 C 15,1 km/h (3 Bft)
26.05.2019 12:58 22,0 C 21,5 C 22,5 C 16,0 C 52 % 55 % 1018,9 hPa 0,0 l/m 7,2 km/h (2 Bft) O-NO 67 12,1 C 21,2 C 15,1 km/h (3 Bft)
26.05.2019 12:56 22,0 C 21,4 C 22,6 C 15,9 C 52 % 53 % 1018,9 hPa 0,0 l/m 6,0 km/h (2 Bft) W-NW 292 11,4 C 21,4 C 8,9 km/h (2 Bft)
26.05.2019 12:54 22,0 C 21,1 C 22,5 C 15,9 C 52 % 56 % 1018,9 hPa 0,0 l/m 4,5 km/h (1 Bft) SW 225 12,0 C 21,1 C 7,5 km/h (2 Bft)
26.05.2019 12:52 22,0 C 21,4 C 22,2 C 15,9 C 52 % 53 % 1018,9 hPa 0,0 l/m 4,7 km/h (1 Bft) S-SW 202 11,4 C 21,4 C 16,2 km/h (3 Bft)
26.05.2019 12:50 22,0 C 21,4 C 22,2 C 15,9 C 52 % 53 % 1019,0 hPa 0,0 l/m 4,3 km/h (1 Bft) O-NO 67 11,4 C 21,4 C 16,2 km/h (3 Bft)
26.05.2019 12:48 22,0 C 21,4 C 21,9 C 15,9 C 52 % 57 % 1019,0 hPa 0,0 l/m 4,3 km/h (1 Bft) O-NO 67 12,5 C 21,4 C 8,9 km/h (2 Bft)
26.05.2019 12:46 22,0 C 20,7 C 21,8 C 15,9 C 52 % 62 % 1019,0 hPa 0,0 l/m 4,7 km/h (1 Bft) SW 225 13,2 C 20,7 C 3,9 km/h (1 Bft)
26.05.2019 12:44 22,0 C 20,5 C 21,5 C 15,9 C 52 % 55 % 1019,0 hPa 0,0 l/m 5,6 km/h (1 Bft) W 270 11,1 C 20,5 C 5,2 km/h (1 Bft)
26.05.2019 12:42 22,0 C 20,5 C 21,6 C 15,9 C 52 % 57 % 1019,0 hPa 0,0 l/m 6,1 km/h (2 Bft) S 180 11,7 C 20,5 C 7,3 km/h (2 Bft)
26.05.2019 12:40 22,0 C 20,6 C 21,8 C 15,9 C 52 % 56 % 1019,0 hPa 0,0 l/m 5,8 km/h (2 Bft) O-NO 67 11,5 C 20,6 C 11,6 km/h (2 Bft)
26.05.2019 12:38 22,0 C 21,0 C 22,1 C 15,9 C 52 % 54 % 1019,0 hPa 0,0 l/m 6,0 km/h (2 Bft) O-NO 67 11,3 C 21,0 C 15,6 km/h (3 Bft)
26.05.2019 12:36 22,0 C 21,0 C 22,3 C 15,9 C 52 % 53 % 1019,0 hPa 0,0 l/m 5,6 km/h (1 Bft) O-NO 67 11,0 C 21,0 C 15,6 km/h (3 Bft)
26.05.2019 12:34 22,0 C 21,1 C 22,6 C 15,9 C 52 % 53 % 1019,0 hPa 0,0 l/m 5,0 km/h (1 Bft) O-NO 67 11,1 C 21,1 C 12,9 km/h (3 Bft)
26.05.2019 12:32 22,0 C 21,0 C 23,2 C 15,8 C 52 % 58 % 1019,0 hPa 0,0 l/m 4,0 km/h (1 Bft) O-NO 67 12,4 C 21,0 C 13,7 km/h (3 Bft)
26.05.2019 12:30 22,0 C 21,0 C 23,2 C 15,8 C 52 % 58 % 1019,2 hPa 0,0 l/m 3,7 km/h (1 Bft) O-NO 67 12,4 C 21,0 C 13,7 km/h (3 Bft)
26.05.2019 12:28 22,0 C 21,1 C 23,2 C 15,8 C 52 % 55 % 1019,2 hPa 0,0 l/m 3,2 km/h (1 Bft) N-NO 22 11,7 C 21,1 C 13,1 km/h (3 Bft)
26.05.2019 12:26 22,0 C 21,2 C 23,2 C 15,8 C 52 % 56 % 1019,2 hPa 0,0 l/m 2,6 km/h (1 Bft) W-SW 247 12,1 C 21,2 C 7,3 km/h (2 Bft)
26.05.2019 12:24 22,0 C 21,1 C 22,7 C 15,8 C 52 % 56 % 1019,2 hPa 0,0 l/m 2,6 km/h (1 Bft) NW 315 12,0 C 21,1 C 7,3 km/h (2 Bft)
26.05.2019 12:22 22,0 C 20,2 C 22,3 C 15,7 C 52 % 60 % 1019,2 hPa 0,0 l/m 3,5 km/h (1 Bft) SO 135 12,2 C 20,2 C 5,6 km/h (1 Bft)
26.05.2019 12:20 22,0 C 20,1 C 22,2 C 15,7 C 52 % 60 % 1019,2 hPa 0,0 l/m 3,9 km/h (1 Bft) SW 225 12,1 C 20,1 C 5,2 km/h (1 Bft)
26.05.2019 12:18 22,0 C 19,7 C 22,0 C 15,7 C 52 % 62 % 1019,2 hPa 0,0 l/m 4,0 km/h (1 Bft) O-SO 112 12,2 C 19,7 C 5,2 km/h (1 Bft)
26.05.2019 12:16 22,0 C 19,8 C 22,0 C 15,7 C 52 % 59 % 1019,2 hPa 0,0 l/m 3,7 km/h (1 Bft) S 180 11,6 C 19,8 C 6,2 km/h (2 Bft)
26.05.2019 12:14 22,0 C 19,8 C 21,7 C 15,7 C 52 % 59 % 1019,2 hPa 0,0 l/m 3,7 km/h (1 Bft) SO 135 11,6 C 19,8 C 7,7 km/h (2 Bft)
26.05.2019 12:12 22,0 C 19,4 C 22,8 C 15,6 C 52 % 60 % 1019,2 hPa 0,0 l/m 3,9 km/h (1 Bft) SO 135 11,4 C 19,4 C 11,2 km/h (2 Bft)
26.05.2019 12:10 22,0 C 19,9 C 22,8 C 15,6 C 52 % 58 % 1019,1 hPa 0,0 l/m 5,6 km/h (1 Bft) O-NO 67 11,4 C 19,9 C 11,2 km/h (2 Bft)
26.05.2019 12:08 22,0 C 19,9 C 22,8 C 15,6 C 52 % 58 % 1019,1 hPa 0,0 l/m 5,6 km/h (1 Bft) O-NO 67 11,4 C 19,9 C 11,2 km/h (2 Bft)
26.05.2019 12:06 22,0 C 19,9 C 22,8 C 15,6 C 52 % 58 % 1019,1 hPa 0,0 l/m 5,6 km/h (1 Bft) O-NO 67 11,4 C 19,9 C 11,2 km/h (2 Bft)
26.05.2019 12:04 22,0 C 19,9 C 22,8 C 15,6 C 52 % 58 % 1019,1 hPa 0,0 l/m 5,6 km/h (1 Bft) O-NO 67 11,4 C 19,9 C 11,2 km/h (2 Bft)
26.05.2019 12:02 22,0 C 19,9 C 22,8 C 15,6 C 52 % 58 % 1019,1 hPa 0,0 l/m 5,6 km/h (1 Bft) O-NO 67 11,4 C 19,9 C 11,2 km/h (2 Bft)
26.05.2019 12:00 22,0 C 19,9 C 22,7 C 15,6 C 52 % 59 % 1019,1 hPa 0,0 l/m 5,6 km/h (1 Bft) NO 45 11,6 C 19,9 C 9,7 km/h (2 Bft)
26.05.2019 11:58 22,0 C 19,7 C 22,5 C 15,6 C 52 % 59 % 1019,1 hPa 0,0 l/m 5,3 km/h (1 Bft) O 90 11,5 C 19,7 C 6,4 km/h (2 Bft)
26.05.2019 11:56 22,0 C 19,6 C 22,3 C 15,6 C 52 % 61 % 1019,1 hPa 0,0 l/m 6,1 km/h (2 Bft) O-NO 67 11,9 C 19,6 C 7,3 km/h (2 Bft)
26.05.2019 11:54 22,0 C 19,8 C 22,4 C 15,6 C 52 % 58 % 1019,1 hPa 0,0 l/m 6,3 km/h (2 Bft) NO 45 11,3 C 19,8 C 11,0 km/h (2 Bft)
26.05.2019 11:52 22,0 C 19,7 C 22,6 C 15,6 C 52 % 60 % 1019,1 hPa 0,0 l/m 6,3 km/h (2 Bft) O 90 11,7 C 19,7 C 11,0 km/h (2 Bft)
26.05.2019 11:50 22,0 C 19,7 C 22,6 C 15,6 C 52 % 60 % 1019,4 hPa 0,0 l/m 6,4 km/h (2 Bft) NO 45 11,7 C 19,7 C 11,0 km/h (2 Bft)
26.05.2019 11:48 22,0 C 19,6 C 22,7 C 15,6 C 52 % 59 % 1019,4 hPa 0,0 l/m 6,6 km/h (2 Bft) SO 135 11,4 C 19,5 C 9,5 km/h (2 Bft)
26.05.2019 11:46 22,0 C 19,6 C 22,8 C 15,6 C 52 % 61 % 1019,4 hPa 0,0 l/m 6,8 km/h (2 Bft) O-NO 67 11,9 C 19,4 C 10,2 km/h (2 Bft)
26.05.2019 11:44 22,0 C 19,7 C 23,2 C 15,6 C 52 % 59 % 1019,4 hPa 0,0 l/m 6,3 km/h (2 Bft) O-NO 67 11,5 C 19,7 C 10,2 km/h (2 Bft)
26.05.2019 11:42 22,0 C 19,9 C 23,8 C 15,6 C 52 % 58 % 1019,4 hPa 0,0 l/m 6,4 km/h (2 Bft) SO 135 11,4 C 19,9 C 11,0 km/h (2 Bft)
26.05.2019 11:40 22,0 C 19,9 C 24,0 C 15,5 C 52 % 58 % 1019,4 hPa 0,0 l/m 6,4 km/h (2 Bft) O-SO 112 11,4 C 19,9 C 13,3 km/h (3 Bft)
26.05.2019 11:38 22,0 C 20,0 C 23,9 C 15,5 C 52 % 56 % 1019,4 hPa 0,0 l/m 6,0 km/h (2 Bft) SO 135 11,0 C 20,0 C 13,3 km/h (3 Bft)
26.05.2019 11:36 22,0 C 20,1 C 23,3 C 15,5 C 52 % 57 % 1019,4 hPa 0,0 l/m 6,0 km/h (2 Bft) W-SW 247 11,3 C 20,1 C 12,9 km/h (3 Bft)
26.05.2019 11:34 22,0 C 19,8 C 23,0 C 15,6 C 52 % 59 % 1019,4 hPa 0,0 l/m 6,1 km/h (2 Bft) SO 135 11,6 C 19,8 C 12,0 km/h (2 Bft)
26.05.2019 11:32 22,0 C 19,6 C 21,6 C 15,5 C 52 % 62 % 1019,4 hPa 0,0 l/m 6,1 km/h (2 Bft) NO 45 12,1 C 19,6 C 12,0 km/h (2 Bft)
26.05.2019 11:30 22,0 C 19,3 C 21,6 C 15,5 C 52 % 60 % 1019,4 hPa 0,0 l/m 5,8 km/h (2 Bft) O 90 11,3 C 19,3 C 10,8 km/h (2 Bft)
26.05.2019 11:28 22,0 C 19,0 C 21,3 C 15,5 C 52 % 60 % 1019,4 hPa 0,0 l/m 6,3 km/h (2 Bft) O-NO 67 11,1 C 19,0 C 7,0 km/h (2 Bft)
26.05.2019 11:26 22,0 C 18,9 C 21,3 C 15,4 C 52 % 60 % 1019,4 hPa 0,0 l/m 6,9 km/h (2 Bft) O 90 11,0 C 18,7 C 21,8 km/h (4 Bft)
26.05.2019 11:24 22,0 C 19,1 C 21,7 C 15,4 C 52 % 60 % 1019,4 hPa 0,0 l/m 7,4 km/h (2 Bft) SO 135 11,1 C 18,7 C 21,8 km/h (4 Bft)
26.05.2019 11:22 22,0 C 19,4 C 22,2 C 15,4 C 52 % 61 % 1019,4 hPa 0,0 l/m 7,9 km/h (2 Bft) SO 135 11,7 C 18,8 C 16,0 km/h (3 Bft)
26.05.2019 11:20 22,0 C 19,6 C 22,7 C 15,4 C 52 % 60 % 1019,4 hPa 0,0 l/m 8,4 km/h (2 Bft) O-SO 112 11,6 C 18,8 C 16,0 km/h (3 Bft)
26.05.2019 11:18 22,0 C 19,8 C 22,8 C 15,4 C 52 % 59 % 1019,4 hPa 0,0 l/m 8,7 km/h (2 Bft) SO 135 11,6 C 18,9 C 13,7 km/h (3 Bft)
26.05.2019 11:16 22,0 C 19,8 C 22,7 C 15,4 C 52 % 57 % 1019,4 hPa 0,0 l/m 8,0 km/h (2 Bft) O-NO 67 11,0 C 19,1 C 16,4 km/h (3 Bft)
26.05.2019 11:14 22,0 C 19,7 C 22,8 C 15,4 C 52 % 58 % 1019,4 hPa 0,0 l/m 7,7 km/h (2 Bft) SO 135 11,2 C 19,2 C 16,4 km/h (3 Bft)
26.05.2019 11:12 22,0 C 19,7 C 23,3 C 15,4 C 52 % 58 % 1019,4 hPa 0,0 l/m 7,7 km/h (2 Bft) O 90 11,2 C 19,2 C 12,9 km/h (3 Bft)
26.05.2019 11:10 22,0 C 19,8 C 23,3 C 15,4 C 52 % 60 % 1019,6 hPa 0,0 l/m 7,6 km/h (2 Bft) O 90 11,8 C 19,3 C 10,6 km/h (2 Bft)
26.05.2019 11:08 22,0 C 19,9 C 23,3 C 15,4 C 52 % 61 % 1019,6 hPa 0,0 l/m 7,4 km/h (2 Bft) O-NO 67 12,2 C 19,5 C 10,0 km/h (2 Bft)
26.05.2019 11:06 22,0 C 19,7 C 23,3 C 15,3 C 52 % 59 % 1019,6 hPa 0,0 l/m 7,9 km/h (2 Bft) NO 45 11,5 C 19,1 C 7,0 km/h (2 Bft)
26.05.2019 11:04 22,0 C 19,5 C 23,0 C 15,3 C 52 % 60 % 1019,6 hPa 0,0 l/m 8,9 km/h (2 Bft) SO 135 11,5 C 18,5 C 15,3 km/h (3 Bft)
26.05.2019 11:02 22,0 C 19,7 C 23,2 C 15,4 C 52 % 58 % 1019,6 hPa 0,0 l/m 9,3 km/h (2 Bft) O-NO 67 11,2 C 18,6 C 15,8 km/h (3 Bft)
26.05.2019 11:00 22,0 C 19,7 C 22,9 C 15,4 C 52 % 60 % 1019,6 hPa 0,0 l/m 9,7 km/h (2 Bft) SO 135 11,7 C 18,4 C 15,8 km/h (3 Bft)
26.05.2019 10:58 22,0 C 19,7 C 22,8 C 15,4 C 52 % 60 % 1019,6 hPa 0,0 l/m 9,3 km/h (2 Bft) W-NW 292 11,7 C 18,6 C 21,2 km/h (4 Bft)
26.05.2019 10:56 22,0 C 19,7 C 22,7 C 15,4 C 52 % 58 % 1019,6 hPa 0,0 l/m 9,3 km/h (2 Bft) NO 45 11,2 C 18,6 C 21,2 km/h (4 Bft)
26.05.2019 10:54 22,0 C 19,6 C 22,2 C 15,3 C 52 % 60 % 1019,6 hPa 0,0 l/m 8,9 km/h (2 Bft) N 360 11,6 C 18,6 C 18,3 km/h (3 Bft)
26.05.2019 10:52 22,0 C 19,5 C 21,5 C 15,3 C 52 % 59 % 1019,6 hPa 0,0 l/m 8,2 km/h (2 Bft) S-SW 202 11,3 C 18,7 C 18,3 km/h (3 Bft)
26.05.2019 10:50 22,0 C 19,2 C 21,5 C 15,3 C 52 % 61 % 1019,4 hPa 0,0 l/m 7,6 km/h (2 Bft) O-NO 67 11,5 C 18,7 C 9,5 km/h (2 Bft)
26.05.2019 10:48 22,0 C 19,1 C 21,2 C 15,3 C 52 % 59 % 1019,4 hPa 0,0 l/m 7,7 km/h (2 Bft) SO 135 10,9 C 18,5 C 12,7 km/h (3 Bft)
26.05.2019 10:46 22,0 C 19,0 C 21,0 C 15,3 C 52 % 61 % 1019,4 hPa 0,0 l/m 7,6 km/h (2 Bft) O 90 11,3 C 18,5 C 15,6 km/h (3 Bft)
26.05.2019 10:44 22,0 C 18,9 C 20,6 C 15,3 C 52 % 59 % 1019,4 hPa 0,0 l/m 8,2 km/h (2 Bft) O-NO 67 10,7 C 18,1 C 15,6 km/h (3 Bft)
26.05.2019 10:42 22,0 C 18,7 C 20,1 C 15,2 C 52 % 62 % 1019,4 hPa 0,0 l/m 8,9 km/h (2 Bft) N-NW 337 11,3 C 17,6 C 15,1 km/h (3 Bft)
26.05.2019 10:40 22,0 C 18,5 C 19,8 C 15,2 C 52 % 63 % 1019,4 hPa 0,0 l/m 9,2 km/h (2 Bft) NO 45 11,3 C 17,3 C 15,1 km/h (3 Bft)
26.05.2019 10:38 22,0 C 18,3 C 19,7 C 15,2 C 52 % 62 % 1019,4 hPa 0,0 l/m 9,3 km/h (2 Bft) SO 135 10,9 C 17,0 C 14,5 km/h (3 Bft)
26.05.2019 10:36 22,0 C 18,3 C 19,6 C 15,2 C 52 % 61 % 1019,4 hPa 0,0 l/m 9,8 km/h (2 Bft) O 90 10,6 C 16,8 C 15,4 km/h (3 Bft)
26.05.2019 10:34 22,0 C 18,3 C 19,6 C 15,2 C 52 % 63 % 1019,4 hPa 0,0 l/m 9,2 km/h (2 Bft) NO 45 11,1 C 17,1 C 15,4 km/h (3 Bft)
26.05.2019 10:32 22,0 C 18,2 C 19,4 C 15,2 C 52 % 63 % 1019,4 hPa 0,0 l/m 8,9 km/h (2 Bft) NO 45 11,0 C 17,1 C 17,2 km/h (3 Bft)
26.05.2019 10:30 22,0 C 18,1 C 19,4 C 15,2 C 52 % 62 % 1019,6 hPa 0,0 l/m 8,5 km/h (2 Bft) N 360 10,7 C 17,1 C 20,1 km/h (4 Bft)
26.05.2019 10:28 22,0 C 18,1 C 19,5 C 15,2 C 52 % 62 % 1019,6 hPa 0,0 l/m 8,5 km/h (2 Bft) O-NO 67 10,7 C 17,1 C 20,1 km/h (4 Bft)
26.05.2019 10:26 22,0 C 18,1 C 19,8 C 15,2 C 52 % 61 % 1019,6 hPa 0,0 l/m 7,6 km/h (2 Bft) O-SO 112 10,5 C 17,5 C 13,9 km/h (3 Bft)
26.05.2019 10:24 22,0 C 18,2 C 20,2 C 15,2 C 52 % 62 % 1019,6 hPa 0,0 l/m 6,9 km/h (2 Bft) O-NO 67 10,8 C 18,0 C 8,7 km/h (2 Bft)
26.05.2019 10:22 22,0 C 18,3 C 20,4 C 15,2 C 52 % 61 % 1019,6 hPa 0,0 l/m 6,8 km/h (2 Bft) W-NW 292 10,6 C 18,1 C 13,9 km/h (3 Bft)
26.05.2019 10:20 22,0 C 18,4 C 20,9 C 15,2 C 52 % 61 % 1019,6 hPa 0,0 l/m 6,6 km/h (2 Bft) O-NO 67 10,7 C 18,3 C 17,6 km/h (3 Bft)
26.05.2019 10:18 22,0 C 18,5 C 21,1 C 15,2 C 52 % 62 % 1019,6 hPa 0,0 l/m 6,3 km/h (2 Bft) NO 45 11,1 C 18,5 C 17,6 km/h (3 Bft)
26.05.2019 10:16 22,0 C 18,5 C 21,1 C 15,2 C 52 % 62 % 1019,6 hPa 0,0 l/m 6,4 km/h (2 Bft) O-SO 112 11,1 C 18,5 C 7,7 km/h (2 Bft)
26.05.2019 10:14 22,0 C 18,6 C 21,2 C 15,2 C 52 % 62 % 1019,6 hPa 0,0 l/m 6,9 km/h (2 Bft) N-NO 22 11,2 C 18,4 C 12,2 km/h (2 Bft)
26.05.2019 10:12 22,0 C 18,6 C 21,1 C 15,2 C 52 % 62 % 1019,6 hPa 0,0 l/m 8,4 km/h (2 Bft) O-NO 67 11,2 C 17,7 C 12,2 km/h (2 Bft)
26.05.2019 10:10 22,0 C 18,6 C 21,1 C 15,2 C 52 % 61 % 1019,4 hPa 0,0 l/m 7,7 km/h (2 Bft) S-SO 157 10,9 C 18,0 C 10,4 km/h (2 Bft)
26.05.2019 10:08 22,0 C 18,8 C 21,4 C 15,2 C 52 % 61 % 1019,4 hPa 0,0 l/m 8,0 km/h (2 Bft) SO 135 11,1 C 18,1 C 13,9 km/h (3 Bft)
26.05.2019 10:06 22,0 C 18,9 C 21,2 C 15,1 C 52 % 61 % 1019,4 hPa 0,0 l/m 8,7 km/h (2 Bft) O-NO 67 11,2 C 17,9 C 13,9 km/h (3 Bft)
26.05.2019 10:04 22,0 C 18,7 C 21,1 C 15,1 C 52 % 62 % 1019,4 hPa 0,0 l/m 9,0 km/h (2 Bft) O-NO 67 11,3 C 17,6 C 22,6 km/h (4 Bft)
26.05.2019 10:02 22,0 C 18,6 C 20,8 C 15,1 C 52 % 65 % 1019,4 hPa 0,0 l/m 8,5 km/h (2 Bft) O-NO 67 11,9 C 17,7 C 22,6 km/h (4 Bft)
26.05.2019 10:00 22,0 C 18,4 C 20,4 C 15,1 C 52 % 63 % 1019,4 hPa 0,0 l/m 8,5 km/h (2 Bft) N-NW 337 11,2 C 17,5 C 15,6 km/h (3 Bft)
26.05.2019 09:58 22,0 C 18,3 C 20,3 C 15,1 C 52 % 62 % 1019,4 hPa 0,0 l/m 8,7 km/h (2 Bft) N 360 10,9 C 17,3 C 18,0 km/h (3 Bft)
26.05.2019 09:56 22,0 C 18,3 C 20,5 C 15,1 C 52 % 61 % 1019,4 hPa 0,0 l/m 8,5 km/h (2 Bft) O-NO 67 10,6 C 17,4 C 20,1 km/h (4 Bft)
26.05.2019 09:54 22,0 C 18,2 C 20,5 C 15,1 C 52 % 62 % 1019,4 hPa 0,0 l/m 7,4 km/h (2 Bft) NO 45 10,8 C 17,7 C 20,1 km/h (4 Bft)
26.05.2019 09:52 22,0 C 18,2 C 20,5 C 15,1 C 52 % 63 % 1019,4 hPa 0,0 l/m 6,8 km/h (2 Bft) O-NO 67 11,0 C 18,0 C 9,7 km/h (2 Bft)
26.05.2019 09:50 22,0 C 18,2 C 20,5 C 15,1 C 52 % 62 % 1019,4 hPa 0,0 l/m 7,1 km/h (2 Bft) O-NO 67 10,8 C 17,9 C 21,6 km/h (4 Bft)
26.05.2019 09:48 22,0 C 18,5 C 20,9 C 15,1 C 52 % 62 % 1019,4 hPa 0,0 l/m 7,1 km/h (2 Bft) NW 315 11,1 C 18,2 C 21,6 km/h (4 Bft)
26.05.2019 09:46 22,0 C 18,6 C 21,0 C 15,1 C 52 % 63 % 1019,4 hPa 0,0 l/m 6,6 km/h (2 Bft) O-NO 67 11,4 C 18,5 C 14,3 km/h (3 Bft)
26.05.2019 09:44 22,0 C 18,6 C 21,0 C 15,1 C 52 % 63 % 1019,4 hPa 0,0 l/m 6,8 km/h (2 Bft) SO 135 11,4 C 18,4 C 11,2 km/h (2 Bft)
26.05.2019 09:42 22,0 C 18,6 C 21,1 C 15,1 C 52 % 61 % 1019,4 hPa 0,0 l/m 7,9 km/h (2 Bft) O-NO 67 10,9 C 17,9 C 11,2 km/h (2 Bft)
26.05.2019 09:40 22,0 C 18,7 C 21,2 C 15,1 C 52 % 61 % 1019,4 hPa 0,0 l/m 8,2 km/h (2 Bft) O-NO 67 11,0 C 17,9 C 11,6 km/h (2 Bft)
26.05.2019 09:38 22,0 C 18,7 C 21,1 C 15,0 C 52 % 63 % 1019,4 hPa 0,0 l/m 9,0 km/h (2 Bft) NO 45 11,5 C 17,6 C 11,6 km/h (2 Bft)
26.05.2019 09:36 22,0 C 18,4 C 20,6 C 15,0 C 52 % 62 % 1019,4 hPa 0,0 l/m 9,0 km/h (2 Bft) NO 45 11,0 C 17,3 C 11,4 km/h (2 Bft)
26.05.2019 09:34 22,0 C 18,2 C 20,3 C 15,0 C 52 % 62 % 1019,4 hPa 0,0 l/m 8,9 km/h (2 Bft) O-NO 67 10,8 C 17,1 C 15,4 km/h (3 Bft)
26.05.2019 09:32 22,0 C 18,2 C 20,0 C 15,0 C 52 % 63 % 1019,4 hPa 0,0 l/m 8,9 km/h (2 Bft) O-NO 67 11,0 C 17,1 C 15,4 km/h (3 Bft)
26.05.2019 09:30 22,0 C 18,1 C 20,0 C 15,0 C 52 % 61 % 1019,3 hPa 0,0 l/m 8,7 km/h (2 Bft) O-NO 67 10,5 C 17,1 C 19,3 km/h (3 Bft)
26.05.2019 09:28 22,0 C 18,2 C 20,0 C 15,0 C 52 % 62 % 1019,3 hPa 0,0 l/m 8,5 km/h (2 Bft) N-NO 22 10,8 C 17,2 C 19,3 km/h (3 Bft)
26.05.2019 09:26 22,0 C 18,1 C 20,0 C 15,1 C 52 % 62 % 1019,3 hPa 0,0 l/m 8,7 km/h (2 Bft) O-NO 67 10,7 C 17,1 C 10,8 km/h (2 Bft)
26.05.2019 09:24 22,0 C 18,2 C 20,0 C 15,1 C 52 % 64 % 1019,3 hPa 0,0 l/m 8,5 km/h (2 Bft) NO 45 11,3 C 17,2 C 10,8 km/h (2 Bft)
26.05.2019 09:22 22,0 C 18,1 C 19,8 C 15,0 C 52 % 66 % 1019,3 hPa 0,0 l/m 9,0 km/h (2 Bft) O-NO 67 11,6 C 16,9 C 10,4 km/h (2 Bft)
26.05.2019 09:20 22,0 C 18,1 C 19,7 C 15,0 C 52 % 62 % 1019,3 hPa 0,0 l/m 9,0 km/h (2 Bft) O-NO 67 10,7 C 16,9 C 19,1 km/h (3 Bft)
26.05.2019 09:18 22,0 C 18,0 C 19,3 C 15,0 C 52 % 63 % 1019,3 hPa 0,0 l/m 9,0 km/h (2 Bft) O 90 10,8 C 16,8 C 19,1 km/h (3 Bft)
26.05.2019 09:16 22,0 C 17,9 C 19,2 C 15,0 C 52 % 64 % 1019,3 hPa 0,0 l/m 8,2 km/h (2 Bft) O-NO 67 11,0 C 17,1 C 16,8 km/h (3 Bft)
26.05.2019 09:14 22,0 C 17,8 C 18,6 C 15,0 C 52 % 65 % 1019,3 hPa 0,0 l/m 9,0 km/h (2 Bft) NO 45 11,1 C 16,6 C 12,4 km/h (3 Bft)
26.05.2019 09:12 22,0 C 17,5 C 17,8 C 14,9 C 52 % 63 % 1019,3 hPa 0,0 l/m 9,0 km/h (2 Bft) N-NO 22 10,4 C 16,3 C 12,4 km/h (3 Bft)
26.05.2019 09:10 22,0 C 17,3 C 17,8 C 14,9 C 52 % 64 % 1019,4 hPa 0,0 l/m 7,9 km/h (2 Bft) NW 315 10,4 C 16,6 C 15,8 km/h (3 Bft)
26.05.2019 09:08 22,0 C 17,1 C 17,3 C 14,9 C 52 % 67 % 1019,4 hPa 0,0 l/m 7,1 km/h (2 Bft) NO 45 10,9 C 16,7 C 15,8 km/h (3 Bft)
26.05.2019 09:06 21,9 C 16,8 C 17,0 C 14,9 C 52 % 67 % 1019,4 hPa 0,0 l/m 6,4 km/h (2 Bft) NO 45 10,6 C 16,8 C 14,5 km/h (3 Bft)
26.05.2019 09:04 22,0 C 16,6 C 16,8 C 14,9 C 52 % 67 % 1019,4 hPa 0,0 l/m 5,6 km/h (1 Bft) NO 45 10,4 C 16,6 C 21,0 km/h (4 Bft)
26.05.2019 09:02 22,0 C 16,6 C 17,1 C 14,9 C 52 % 68 % 1019,4 hPa 0,0 l/m 4,8 km/h (1 Bft) W-NW 292 10,7 C 16,6 C 21,0 km/h (4 Bft)
26.05.2019 09:00 22,0 C 16,6 C 17,1 C 14,9 C 52 % 68 % 1019,4 hPa 0,0 l/m 4,7 km/h (1 Bft) SO 135 10,7 C 16,6 C 7,3 km/h (2 Bft)
26.05.2019 08:58 22,0 C 16,7 C 17,2 C 14,9 C 52 % 68 % 1019,4 hPa 0,0 l/m 4,7 km/h (1 Bft) O-NO 67 10,8 C 16,7 C 4,4 km/h (1 Bft)
26.05.2019 08:56 22,0 C 16,7 C 17,2 C 14,9 C 52 % 68 % 1019,4 hPa 0,0 l/m 4,7 km/h (1 Bft) O-SO 112 10,8 C 16,7 C 7,3 km/h (2 Bft)
26.05.2019 08:54 22,0 C 16,7 C 17,3 C 14,9 C 52 % 68 % 1019,4 hPa 0,0 l/m 4,8 km/h (1 Bft) O 90 10,8 C 16,7 C 9,8 km/h (2 Bft)
26.05.2019 08:52 22,0 C 16,7 C 17,5 C 15,0 C 52 % 68 % 1019,4 hPa 0,0 l/m 4,2 km/h (1 Bft) N-NO 22 10,8 C 16,7 C 9,8 km/h (2 Bft)
26.05.2019 08:50 22,0 C 16,7 C 17,5 C 15,0 C 52 % 68 % 1019,4 hPa 0,0 l/m 3,4 km/h (1 Bft) N-NW 337 10,8 C 16,7 C 5,4 km/h (1 Bft)
26.05.2019 08:48 22,0 C 16,7 C 17,5 C 15,0 C 52 % 70 % 1019,4 hPa 0,0 l/m 3,5 km/h (1 Bft) O 90 11,2 C 16,7 C 5,4 km/h (1 Bft)
26.05.2019 08:46 22,0 C 16,7 C 17,4 C 15,0 C 52 % 70 % 1019,4 hPa 0,0 l/m 3,7 km/h (1 Bft) N-NW 337 11,2 C 16,7 C 7,5 km/h (2 Bft)
26.05.2019 08:44 21,9 C 16,6 C 17,3 C 15,0 C 52 % 69 % 1019,4 hPa 0,0 l/m 3,9 km/h (1 Bft) O-NO 67 10,9 C 16,6 C 7,5 km/h (2 Bft)
26.05.2019 08:42 22,0 C 16,5 C 17,2 C 15,0 C 52 % 70 % 1019,4 hPa 0,0 l/m 4,0 km/h (1 Bft) O-SO 112 11,0 C 16,5 C 3,7 km/h (1 Bft)
26.05.2019 08:40 22,0 C 16,5 C 17,1 C 15,0 C 52 % 69 % 1019,4 hPa 0,0 l/m 4,7 km/h (1 Bft) N 360 10,8 C 16,5 C 6,8 km/h (2 Bft)
26.05.2019 08:38 22,0 C 16,4 C 16,9 C 15,0 C 52 % 68 % 1019,4 hPa 0,0 l/m 5,5 km/h (1 Bft) NO 45 10,5 C 16,4 C 6,8 km/h (2 Bft)
26.05.2019 08:36 22,0 C 16,4 C 16,7 C 15,0 C 52 % 69 % 1019,4 hPa 0,0 l/m 6,0 km/h (2 Bft) NO 45 10,7 C 16,4 C 7,9 km/h (2 Bft)
26.05.2019 08:34 22,0 C 16,4 C 16,7 C 15,0 C 52 % 69 % 1019,4 hPa 0,0 l/m 6,4 km/h (2 Bft) N-NO 22 10,7 C 16,4 C 7,9 km/h (2 Bft)
26.05.2019 08:32 22,0 C 16,4 C 16,5 C 15,0 C 52 % 68 % 1019,4 hPa 0,0 l/m 6,9 km/h (2 Bft) NW 315 10,5 C 16,1 C 7,0 km/h (2 Bft)
26.05.2019 08:30 22,0 C 16,4 C 16,5 C 15,0 C 52 % 69 % 1019,2 hPa 0,0 l/m 7,7 km/h (2 Bft) NO 45 10,7 C 15,7 C 7,0 km/h (2 Bft)
26.05.2019 08:28 22,0 C 16,4 C 16,5 C 15,0 C 52 % 68 % 1019,2 hPa 0,0 l/m 8,0 km/h (2 Bft) O-NO 67 10,5 C 15,6 C 10,2 km/h (2 Bft)
26.05.2019 08:26 22,0 C 16,4 C 16,5 C 15,0 C 52 % 69 % 1019,2 hPa 0,0 l/m 8,4 km/h (2 Bft) NO 45 10,7 C 15,4 C 14,1 km/h (3 Bft)
26.05.2019 08:24 21,9 C 16,4 C 16,4 C 15,0 C 52 % 68 % 1019,2 hPa 0,0 l/m 8,4 km/h (2 Bft) S-SO 157 10,5 C 15,4 C 14,1 km/h (3 Bft)
26.05.2019 08:22 21,9 C 16,4 C 16,5 C 15,0 C 52 % 68 % 1019,2 hPa 0,0 l/m 8,2 km/h (2 Bft) O 90 10,5 C 15,5 C 12,0 km/h (2 Bft)
26.05.2019 08:20 21,9 C 16,4 C 16,6 C 15,0 C 52 % 68 % 1019,2 hPa 0,0 l/m 7,9 km/h (2 Bft) O 90 10,5 C 15,6 C 24,3 km/h (4 Bft)
26.05.2019 08:18 22,0 C 16,4 C 16,7 C 15,0 C 52 % 68 % 1019,2 hPa 0,0 l/m 8,2 km/h (2 Bft) NO 45 10,5 C 15,5 C 24,3 km/h (4 Bft)
26.05.2019 08:16 21,9 C 16,4 C 16,6 C 14,9 C 52 % 69 % 1019,2 hPa 0,0 l/m 7,7 km/h (2 Bft) NO 45 10,7 C 15,7 C 10,6 km/h (2 Bft)
26.05.2019 08:14 21,9 C 16,4 C 16,6 C 14,9 C 52 % 72 % 1019,2 hPa 0,0 l/m 7,9 km/h (2 Bft) N 360 11,3 C 15,6 C 6,2 km/h (2 Bft)
26.05.2019 08:12 21,9 C 16,4 C 16,5 C 14,9 C 52 % 68 % 1019,2 hPa 0,0 l/m 7,9 km/h (2 Bft) NW 315 10,5 C 15,6 C 11,2 km/h (2 Bft)
26.05.2019 08:10 22,0 C 16,3 C 16,5 C 14,9 C 52 % 69 % 1019,2 hPa 0,0 l/m 7,6 km/h (2 Bft) SO 135 10,6 C 15,7 C 11,8 km/h (2 Bft)
26.05.2019 08:08 22,0 C 16,3 C 16,6 C 14,9 C 52 % 68 % 1019,2 hPa 0,0 l/m 7,6 km/h (2 Bft) O 90 10,4 C 15,7 C 14,9 km/h (3 Bft)
26.05.2019 08:06 21,9 C 16,3 C 16,6 C 14,9 C 52 % 69 % 1019,2 hPa 0,0 l/m 7,2 km/h (2 Bft) N-NO 22 10,6 C 15,9 C 14,9 km/h (3 Bft)
26.05.2019 08:04 22,0 C 16,2 C 16,5 C 14,9 C 52 % 71 % 1019,2 hPa 0,0 l/m 6,8 km/h (2 Bft) NO 45 10,9 C 16,0 C 13,3 km/h (3 Bft)
26.05.2019 08:02 22,0 C 16,1 C 16,3 C 14,9 C 52 % 70 % 1019,2 hPa 0,0 l/m 6,6 km/h (2 Bft) S-SO 157 10,6 C 16,0 C 15,4 km/h (3 Bft)
26.05.2019 08:00 22,0 C 16,1 C 16,3 C 14,9 C 52 % 71 % 1019,2 hPa 0,0 l/m 6,9 km/h (2 Bft) NO 45 10,8 C 15,8 C 15,4 km/h (3 Bft)
26.05.2019 07:58 22,0 C 16,1 C 16,2 C 14,9 C 52 % 71 % 1019,2 hPa 0,0 l/m 6,8 km/h (2 Bft) NO 45 10,8 C 15,9 C 10,0 km/h (2 Bft)
26.05.2019 07:56 21,9 C 16,1 C 16,1 C 14,9 C 52 % 71 % 1019,2 hPa 0,0 l/m 6,8 km/h (2 Bft) O-NO 67 10,8 C 15,9 C 10,0 km/h (2 Bft)
26.05.2019 07:54 21,9 C 16,0 C 15,9 C 14,9 C 52 % 72 % 1019,2 hPa 0,0 l/m 6,8 km/h (2 Bft) NO 45 11,0 C 15,8 C 9,1 km/h (2 Bft)
26.05.2019 07:52 22,0 C 16,0 C 15,7 C 14,9 C 52 % 72 % 1019,2 hPa 0,0 l/m 7,4 km/h (2 Bft) O-NO 67 11,0 C 15,5 C 14,3 km/h (3 Bft)
26.05.2019 07:50 21,9 C 15,9 C 15,7 C 14,9 C 52 % 72 % 1018,9 hPa 0,0 l/m 7,4 km/h (2 Bft) NO 45 10,9 C 15,4 C 14,3 km/h (3 Bft)
26.05.2019 07:48 21,9 C 15,9 C 15,4 C 14,9 C 52 % 72 % 1018,9 hPa 0,0 l/m 7,1 km/h (2 Bft) NO 45 10,9 C 15,5 C 14,1 km/h (3 Bft)
26.05.2019 07:46 21,9 C 15,7 C 15,3 C 14,9 C 52 % 73 % 1018,9 hPa 0,0 l/m 7,1 km/h (2 Bft) NO 45 10,9 C 15,3 C 13,9 km/h (3 Bft)
26.05.2019 07:44 21,9 C 15,6 C 15,1 C 14,9 C 52 % 73 % 1018,9 hPa 0,0 l/m 6,6 km/h (2 Bft) NO 45 10,8 C 15,5 C 12,0 km/h (2 Bft)
26.05.2019 07:42 21,9 C 15,6 C 15,1 C 14,9 C 52 % 74 % 1018,9 hPa 0,0 l/m 6,4 km/h (2 Bft) NO 45 11,0 C 15,6 C 12,0 km/h (2 Bft)
26.05.2019 07:40 21,9 C 15,5 C 15,0 C 14,9 C 52 % 74 % 1018,9 hPa 0,0 l/m 6,3 km/h (2 Bft) SO 135 10,9 C 15,5 C 9,7 km/h (2 Bft)
26.05.2019 07:38 21,9 C 15,4 C 14,9 C 14,9 C 52 % 74 % 1018,9 hPa 0,0 l/m 6,1 km/h (2 Bft) N 360 10,8 C 15,4 C 9,7 km/h (2 Bft)
26.05.2019 07:36 22,0 C 15,3 C 14,8 C 14,9 C 52 % 75 % 1018,9 hPa 0,0 l/m 5,5 km/h (1 Bft) O-NO 67 10,9 C 15,3 C 8,7 km/h (2 Bft)
26.05.2019 07:34 21,9 C 15,2 C 14,7 C 14,9 C 52 % 75 % 1018,9 hPa 0,0 l/m 5,1 km/h (1 Bft) S 180 10,8 C 15,2 C 12,7 km/h (3 Bft)
26.05.2019 07:32 21,9 C 15,1 C 14,6 C 15,0 C 52 % 75 % 1018,9 hPa 0,0 l/m 5,0 km/h (1 Bft) O-NO 67 10,7 C 15,1 C 12,7 km/h (3 Bft)
26.05.2019 07:30 21,9 C 15,0 C 14,6 C 15,0 C 52 % 75 % 1018,9 hPa 0,0 l/m 4,5 km/h (1 Bft) O-NO 67 10,6 C 15,0 C 7,3 km/h (2 Bft)
26.05.2019 07:28 21,9 C 14,9 C 14,5 C 15,0 C 52 % 76 % 1018,9 hPa 0,0 l/m 4,3 km/h (1 Bft) SO 135 10,7 C 14,9 C 8,5 km/h (2 Bft)
26.05.2019 07:26 21,9 C 14,8 C 14,4 C 15,0 C 52 % 76 % 1018,9 hPa 0,0 l/m 4,5 km/h (1 Bft) O 90 10,6 C 14,8 C 8,5 km/h (2 Bft)
26.05.2019 07:24 21,9 C 14,8 C 14,3 C 15,0 C 52 % 76 % 1018,9 hPa 0,0 l/m 4,7 km/h (1 Bft) O 90 10,6 C 14,8 C 7,5 km/h (2 Bft)
26.05.2019 07:22 21,9 C 14,7 C 14,2 C 15,0 C 52 % 76 % 1018,9 hPa 0,0 l/m 5,0 km/h (1 Bft) N-NO 22 10,5 C 14,7 C 7,9 km/h (2 Bft)
26.05.2019 07:20 21,9 C 14,7 C 14,1 C 15,0 C 52 % 76 % 1018,9 hPa 0,0 l/m 4,8 km/h (1 Bft) O-NO 67 10,5 C 14,7 C 12,2 km/h (2 Bft)
26.05.2019 07:18 21,9 C 14,6 C 14,1 C 15,0 C 52 % 76 % 1018,9 hPa 0,0 l/m 5,0 km/h (1 Bft) O-NO 67 10,4 C 14,6 C 12,2 km/h (2 Bft)
26.05.2019 07:16 21,9 C 14,6 C 14,1 C 15,0 C 52 % 76 % 1018,9 hPa 0,0 l/m 5,5 km/h (1 Bft) O-NO 67 10,4 C 14,6 C 6,4 km/h (2 Bft)
26.05.2019 07:14 21,9 C 14,6 C 14,1 C 15,0 C 52 % 77 % 1018,9 hPa 0,0 l/m 5,6 km/h (1 Bft) SO 135 10,6 C 14,6 C 7,3 km/h (2 Bft)
26.05.2019 07:12 21,9 C 14,5 C 14,1 C 15,0 C 52 % 77 % 1018,9 hPa 0,0 l/m 5,6 km/h (1 Bft) O-NO 67 10,5 C 14,5 C 10,4 km/h (2 Bft)
26.05.2019 07:10 21,9 C 14,5 C 14,1 C 15,0 C 52 % 77 % 1018,8 hPa 0,0 l/m 6,0 km/h (2 Bft) NO 45 10,5 C 14,5 C 10,4 km/h (2 Bft)
26.05.2019 07:08 21,9 C 14,5 C 14,2 C 15,0 C 52 % 77 % 1018,8 hPa 0,0 l/m 6,0 km/h (2 Bft) O 90 10,5 C 14,5 C 11,0 km/h (2 Bft)
26.05.2019 07:06 21,9 C 14,4 C 14,2 C 15,0 C 52 % 77 % 1018,8 hPa 0,0 l/m 6,0 km/h (2 Bft) O-NO 67 10,4 C 14,4 C 11,0 km/h (2 Bft)
26.05.2019 07:04 21,9 C 14,4 C 14,2 C 15,0 C 52 % 77 % 1018,8 hPa 0,0 l/m 6,4 km/h (2 Bft) O-NO 67 10,4 C 14,4 C 7,7 km/h (2 Bft)
26.05.2019 07:02 21,9 C 14,4 C 14,2 C 15,0 C 52 % 77 % 1018,8 hPa 0,0 l/m 6,6 km/h (2 Bft) O 90 10,4 C 14,3 C 10,2 km/h (2 Bft)
26.05.2019 07:00 21,9 C 14,4 C 14,2 C 15,0 C 52 % 77 % 1018,8 hPa 0,0 l/m 6,6 km/h (2 Bft) O-NO 67 10,4 C 14,3 C 10,2 km/h (2 Bft)
26.05.2019 06:58 21,9 C 14,3 C 14,1 C 15,0 C 52 % 77 % 1018,8 hPa 0,0 l/m 6,9 km/h (2 Bft) NO 45 10,3 C 14,0 C 7,0 km/h (2 Bft)
26.05.2019 06:56 21,9 C 14,3 C 14,0 C 15,0 C 52 % 77 % 1018,8 hPa 0,0 l/m 6,9 km/h (2 Bft) N 360 10,3 C 14,0 C 16,6 km/h (3 Bft)
26.05.2019 06:54 21,9 C 14,3 C 14,1 C 15,0 C 52 % 77 % 1018,8 hPa 0,0 l/m 6,9 km/h (2 Bft) NO 45 10,3 C 14,0 C 16,6 km/h (3 Bft)
26.05.2019 06:52 21,9 C 14,2 C 14,1 C 15,0 C 52 % 78 % 1018,8 hPa 0,0 l/m 6,4 km/h (2 Bft) N 360 10,4 C 14,2 C 11,6 km/h (2 Bft)
26.05.2019 06:50 21,9 C 14,2 C 14,1 C 15,0 C 52 % 78 % 1019,0 hPa 0,0 l/m 6,4 km/h (2 Bft) W-SW 247 10,4 C 14,2 C 11,6 km/h (2 Bft)
26.05.2019 06:48 21,9 C 14,1 C 14,0 C 15,0 C 52 % 78 % 1019,0 hPa 0,0 l/m 5,8 km/h (2 Bft) N-NO 22 10,3 C 14,1 C 9,7 km/h (2 Bft)
26.05.2019 06:46 21,9 C 14,1 C 14,0 C 15,0 C 52 % 78 % 1019,0 hPa 0,0 l/m 5,5 km/h (1 Bft) NO 45 10,3 C 14,1 C 7,7 km/h (2 Bft)
26.05.2019 06:44 21,9 C 14,0 C 14,0 C 15,0 C 52 % 78 % 1019,0 hPa 0,0 l/m 4,8 km/h (1 Bft) O 90 10,2 C 14,0 C 7,7 km/h (2 Bft)
26.05.2019 06:42 21,9 C 14,0 C 13,9 C 15,0 C 52 % 78 % 1019,0 hPa 0,0 l/m 4,3 km/h (1 Bft) N-NO 22 10,2 C 14,0 C 9,1 km/h (2 Bft)
26.05.2019 06:40 21,9 C 14,0 C 13,8 C 15,0 C 52 % 79 % 1019,0 hPa 0,0 l/m 4,7 km/h (1 Bft) O-NO 67 10,4 C 14,0 C 9,1 km/h (2 Bft)
26.05.2019 06:38 21,9 C 13,9 C 13,8 C 15,0 C 52 % 79 % 1019,0 hPa 0,0 l/m 4,2 km/h (1 Bft) O 90 10,3 C 13,9 C 6,4 km/h (2 Bft)
26.05.2019 06:36 21,9 C 13,9 C 13,6 C 15,0 C 52 % 79 % 1019,0 hPa 0,0 l/m 4,5 km/h (1 Bft) O-NO 67 10,3 C 13,9 C 5,8 km/h (2 Bft)
26.05.2019 06:34 21,9 C 13,8 C 13,5 C 15,0 C 52 % 79 % 1019,0 hPa 0,0 l/m 4,8 km/h (1 Bft) N 360 10,2 C 13,8 C 5,2 km/h (1 Bft)
26.05.2019 06:32 21,9 C 13,7 C 13,4 C 15,0 C 52 % 79 % 1019,0 hPa 0,0 l/m 5,5 km/h (1 Bft) NW 315 10,1 C 13,7 C 9,1 km/h (2 Bft)
26.05.2019 06:30 21,9 C 13,7 C 13,4 C 15,0 C 52 % 79 % 1018,7 hPa 0,0 l/m 5,6 km/h (1 Bft) NO 45 10,1 C 13,7 C 9,1 km/h (2 Bft)
26.05.2019 06:28 21,9 C 13,6 C 13,3 C 15,0 C 52 % 80 % 1018,7 hPa 0,0 l/m 6,3 km/h (2 Bft) NO 45 10,2 C 13,6 C 9,8 km/h (2 Bft)
26.05.2019 06:26 21,9 C 13,6 C 13,2 C 15,0 C 52 % 80 % 1018,7 hPa 0,0 l/m 6,1 km/h (2 Bft) O-NO 67 10,2 C 13,6 C 9,8 km/h (2 Bft)
26.05.2019 06:24 21,9 C 13,5 C 13,1 C 15,0 C 52 % 80 % 1018,7 hPa 0,0 l/m 6,0 km/h (2 Bft) O 90 10,1 C 13,5 C 11,4 km/h (2 Bft)
26.05.2019 06:22 21,9 C 13,4 C 13,0 C 15,0 C 52 % 80 % 1018,7 hPa 0,0 l/m 6,1 km/h (2 Bft) NO 45 10,0 C 13,4 C 11,4 km/h (2 Bft)
26.05.2019 06:20 21,9 C 13,4 C 13,1 C 15,0 C 52 % 80 % 1018,7 hPa 0,0 l/m 6,3 km/h (2 Bft) N 360 10,0 C 13,4 C 9,8 km/h (2 Bft)
26.05.2019 06:18 21,9 C 13,3 C 13,3 C 15,0 C 52 % 80 % 1018,7 hPa 0,0 l/m 6,3 km/h (2 Bft) N-NO 22 9,9 C 13,3 C 9,8 km/h (2 Bft)
26.05.2019 06:16 21,9 C 13,3 C 13,2 C 15,0 C 52 % 80 % 1018,7 hPa 0,0 l/m 6,4 km/h (2 Bft) NO 45 9,9 C 13,3 C 7,7 km/h (2 Bft)
26.05.2019 06:14 21,9 C 13,3 C 13,1 C 15,0 C 52 % 80 % 1018,7 hPa 0,0 l/m 6,3 km/h (2 Bft) NO 45 9,9 C 13,3 C 7,7 km/h (2 Bft)
26.05.2019 06:12 21,9 C 13,3 C 12,8 C 15,0 C 52 % 80 % 1018,7 hPa 0,0 l/m 6,3 km/h (2 Bft) N-NO 22 9,9 C 13,3 C 5,6 km/h (1 Bft)
26.05.2019 06:10 21,9 C 13,0 C 12,8 C 15,0 C 52 % 81 % 1018,7 hPa 0,0 l/m 4,8 km/h (1 Bft) O-NO 67 9,8 C 13,0 C 4,4 km/h (1 Bft)
26.05.2019 06:08 21,9 C 13,0 C 12,8 C 15,0 C 52 % 81 % 1018,7 hPa 0,0 l/m 4,8 km/h (1 Bft) O-NO 67 9,8 C 13,0 C 4,4 km/h (1 Bft)
26.05.2019 06:06 21,9 C 13,0 C 12,8 C 15,0 C 52 % 81 % 1018,7 hPa 0,0 l/m 4,8 km/h (1 Bft) O-NO 67 9,8 C 13,0 C 4,4 km/h (1 Bft)
26.05.2019 06:04 21,9 C 13,0 C 12,8 C 15,0 C 52 % 81 % 1018,7 hPa 0,0 l/m 4,8 km/h (1 Bft) O-NO 67 9,8 C 13,0 C 4,4 km/h (1 Bft)
26.05.2019 06:02 21,9 C 13,0 C 12,8 C 15,0 C 52 % 81 % 1018,7 hPa 0,0 l/m 4,8 km/h (1 Bft) O-NO 67 9,8 C 13,0 C 4,4 km/h (1 Bft)
26.05.2019 06:00 21,9 C 13,0 C 12,7 C 15,0 C 52 % 81 % 1018,7 hPa 0,0 l/m 4,8 km/h (1 Bft) O-NO 67 9,8 C 13,0 C 11,0 km/h (2 Bft)
26.05.2019 05:58 21,9 C 12,9 C 12,6 C 15,0 C 52 % 82 % 1018,7 hPa 0,0 l/m 4,8 km/h (1 Bft) NO 45 9,9 C 12,9 C 11,0 km/h (2 Bft)
26.05.2019 05:56 21,9 C 12,9 C 12,7 C 15,1 C 52 % 82 % 1018,7 hPa 0,0 l/m 5,0 km/h (1 Bft) O-NO 67 9,9 C 12,9 C 9,1 km/h (2 Bft)
26.05.2019 05:54 21,9 C 12,8 C 12,7 C 15,1 C 52 % 82 % 1018,7 hPa 0,0 l/m 5,0 km/h (1 Bft) O-NO 67 9,8 C 12,8 C 9,1 km/h (2 Bft)
26.05.2019 05:52 21,9 C 12,8 C 12,6 C 15,1 C 52 % 82 % 1018,7 hPa 0,0 l/m 5,0 km/h (1 Bft) N-NO 22 9,8 C 12,8 C 6,2 km/h (2 Bft)
26.05.2019 05:50 21,9 C 12,8 C 12,6 C 15,1 C 52 % 82 % 1018,5 hPa 0,0 l/m 4,7 km/h (1 Bft) SO 135 9,8 C 12,8 C 5,8 km/h (2 Bft)
26.05.2019 05:48 21,9 C 12,8 C 12,5 C 15,1 C 52 % 82 % 1018,5 hPa 0,0 l/m 4,5 km/h (1 Bft) NO 45 9,8 C 12,8 C 12,9 km/h (3 Bft)
26.05.2019 05:46 21,9 C 12,7 C 12,6 C 15,1 C 52 % 82 % 1018,5 hPa 0,0 l/m 4,7 km/h (1 Bft) NO 45 9,7 C 12,7 C 12,9 km/h (3 Bft)
26.05.2019 05:44 21,9 C 12,7 C 12,7 C 15,1 C 52 % 82 % 1018,5 hPa 0,0 l/m 4,2 km/h (1 Bft) N 360 9,7 C 12,7 C 6,6 km/h (2 Bft)
26.05.2019 05:42 21,9 C 12,7 C 12,8 C 15,1 C 52 % 82 % 1018,5 hPa 0,0 l/m 4,5 km/h (1 Bft) O-NO 67 9,7 C 12,7 C 6,6 km/h (2 Bft)
26.05.2019 05:40 21,9 C 12,7 C 12,8 C 15,1 C 52 % 82 % 1018,5 hPa 0,0 l/m 4,7 km/h (1 Bft) O-NO 67 9,7 C 12,7 C 5,2 km/h (1 Bft)
26.05.2019 05:38 21,9 C 12,7 C 12,8 C 15,1 C 52 % 82 % 1018,5 hPa 0,0 l/m 4,8 km/h (1 Bft) N 360 9,7 C 12,7 C 7,9 km/h (2 Bft)
26.05.2019 05:36 21,9 C 12,7 C 12,8 C 15,1 C 52 % 82 % 1018,5 hPa 0,0 l/m 5,0 km/h (1 Bft) NO 45 9,7 C 12,7 C 7,9 km/h (2 Bft)
26.05.2019 05:34 21,9 C 12,7 C 12,8 C 15,1 C 52 % 82 % 1018,5 hPa 0,0 l/m 5,0 km/h (1 Bft) N 360 9,7 C 12,7 C 7,7 km/h (2 Bft)
26.05.2019 05:32 21,9 C 12,7 C 12,7 C 15,1 C 52 % 82 % 1018,5 hPa 0,0 l/m 4,7 km/h (1 Bft) NO 45 9,7 C 12,7 C 7,7 km/h (2 Bft)
26.05.2019 05:30 21,9 C 12,7 C 12,7 C 15,1 C 52 % 82 % 1018,5 hPa 0,0 l/m 4,8 km/h (1 Bft) N 360 9,7 C 12,7 C 7,5 km/h (2 Bft)
26.05.2019 05:28 21,9 C 12,7 C 12,8 C 15,1 C 52 % 82 % 1018,5 hPa 0,0 l/m 4,8 km/h (1 Bft) O-NO 67 9,7 C 12,7 C 6,0 km/h (2 Bft)
26.05.2019 05:26 21,9 C 12,7 C 12,8 C 15,1 C 52 % 82 % 1018,5 hPa 0,0 l/m 4,8 km/h (1 Bft) O-NO 67 9,7 C 12,7 C 6,0 km/h (2 Bft)
26.05.2019 05:24 21,9 C 12,7 C 12,9 C 15,1 C 52 % 82 % 1018,5 hPa 0,0 l/m 5,1 km/h (1 Bft) NO 45 9,7 C 12,7 C 4,6 km/h (1 Bft)
26.05.2019 05:22 21,9 C 12,7 C 12,8 C 15,1 C 52 % 82 % 1018,5 hPa 0,0 l/m 5,5 km/h (1 Bft) O-NO 67 9,7 C 12,7 C 9,7 km/h (2 Bft)
26.05.2019 05:20 21,9 C 12,7 C 12,9 C 15,1 C 52 % 82 % 1018,5 hPa 0,0 l/m 5,5 km/h (1 Bft) O 90 9,7 C 12,7 C 9,7 km/h (2 Bft)
26.05.2019 05:18 21,9 C 12,7 C 12,9 C 15,1 C 52 % 82 % 1018,5 hPa 0,0 l/m 6,0 km/h (2 Bft) NO 45 9,7 C 12,7 C 7,3 km/h (2 Bft)
26.05.2019 05:16 21,9 C 12,7 C 12,9 C 15,1 C 52 % 82 % 1018,5 hPa 0,0 l/m 6,1 km/h (2 Bft) O-NO 67 9,7 C 12,7 C 6,4 km/h (2 Bft)
26.05.2019 05:14 21,9 C 12,7 C 12,9 C 15,1 C 52 % 82 % 1018,5 hPa 0,0 l/m 6,6 km/h (2 Bft) O-NO 67 9,7 C 12,6 C 8,3 km/h (2 Bft)
26.05.2019 05:12 21,9 C 12,7 C 12,9 C 15,1 C 52 % 83 % 1018,5 hPa 0,0 l/m 6,3 km/h (2 Bft) NO 45 9,9 C 12,7 C 8,3 km/h (2 Bft)
26.05.2019 05:10 21,9 C 12,7 C 12,9 C 15,1 C 52 % 82 % 1018,4 hPa 0,0 l/m 6,3 km/h (2 Bft) NO 45 9,7 C 12,7 C 8,3 km/h (2 Bft)
26.05.2019 05:08 21,9 C 12,7 C 12,9 C 15,1 C 52 % 83 % 1018,4 hPa 0,0 l/m 5,8 km/h (2 Bft) NO 45 9,9 C 12,7 C 9,5 km/h (2 Bft)
26.05.2019 05:06 21,9 C 12,7 C 12,8 C 15,1 C 52 % 83 % 1018,4 hPa 0,0 l/m 5,8 km/h (2 Bft) NO 45 9,9 C 12,7 C 9,5 km/h (2 Bft)
26.05.2019 05:04 21,9 C 12,7 C 12,8 C 15,1 C 52 % 83 % 1018,4 hPa 0,0 l/m 5,6 km/h (1 Bft) N-NO 22 9,9 C 12,7 C 6,6 km/h (2 Bft)
26.05.2019 05:02 21,9 C 12,7 C 12,7 C 15,1 C 52 % 83 % 1018,4 hPa 0,0 l/m 5,6 km/h (1 Bft) NO 45 9,9 C 12,7 C 6,6 km/h (2 Bft)
26.05.2019 05:00 21,9 C 12,6 C 12,7 C 15,1 C 52 % 83 % 1018,4 hPa 0,0 l/m 5,5 km/h (1 Bft) N 360 9,8 C 12,6 C 10,0 km/h (2 Bft)
26.05.2019 04:58 21,9 C 12,6 C 12,7 C 15,1 C 52 % 83 % 1018,4 hPa 0,0 l/m 5,3 km/h (1 Bft) O-NO 67 9,8 C 12,6 C 12,0 km/h (2 Bft)
26.05.2019 04:56 21,9 C 12,6 C 12,6 C 15,1 C 52 % 83 % 1018,4 hPa 0,0 l/m 4,8 km/h (1 Bft) N 360 9,8 C 12,6 C 12,0 km/h (2 Bft)
26.05.2019 04:54 21,9 C 12,5 C 12,7 C 15,1 C 52 % 83 % 1018,4 hPa 0,0 l/m 4,2 km/h (1 Bft) O-NO 67 9,7 C 12,5 C 8,7 km/h (2 Bft)
26.05.2019 04:52 21,9 C 12,5 C 12,7 C 15,2 C 52 % 83 % 1018,4 hPa 0,0 l/m 3,5 km/h (1 Bft) N 360 9,7 C 12,5 C 6,8 km/h (2 Bft)
26.05.2019 04:50 21,9 C 12,5 C 12,7 C 15,2 C 52 % 82 % 1018,5 hPa 0,0 l/m 3,2 km/h (1 Bft) N-NO 22 9,5 C 12,5 C 4,2 km/h (1 Bft)
26.05.2019 04:48 22,0 C 12,5 C 12,6 C 15,2 C 52 % 82 % 1018,5 hPa 0,0 l/m 3,2 km/h (1 Bft) O-NO 67 9,5 C 12,5 C 6,4 km/h (2 Bft)
26.05.2019 04:46 21,9 C 12,5 C 12,5 C 15,2 C 52 % 82 % 1018,5 hPa 0,0 l/m 2,9 km/h (1 Bft) O 90 9,5 C 12,5 C 6,4 km/h (2 Bft)
26.05.2019 04:44 21,9 C 12,5 C 12,3 C 15,2 C 52 % 82 % 1018,5 hPa 0,0 l/m 2,6 km/h (1 Bft) N-NO 22 9,5 C 12,5 C 5,8 km/h (2 Bft)
26.05.2019 04:42 21,9 C 12,4 C 12,7 C 15,2 C 52 % 82 % 1018,5 hPa 0,0 l/m 2,1 km/h (1 Bft) O 90 9,4 C 12,4 C 5,8 km/h (2 Bft)
26.05.2019 04:40 21,9 C 12,5 C 12,9 C 15,2 C 52 % 82 % 1018,5 hPa 0,0 l/m 1,8 km/h (1 Bft) NO 45 9,5 C 12,5 C 4,2 km/h (1 Bft)
26.05.2019 04:38 21,9 C 12,5 C 12,9 C 15,2 C 52 % 82 % 1018,5 hPa 0,0 l/m 1,1 km/h (1 Bft) NO 45 9,5 C 12,5 C 4,8 km/h (1 Bft)
26.05.2019 04:36 21,9 C 12,5 C 13,1 C 15,2 C 52 % 82 % 1018,5 hPa 0,0 l/m 0,6 km/h (0 Bft) NO 45 9,5 C 12,5 C 4,8 km/h (1 Bft)
26.05.2019 04:34 21,9 C 12,5 C 13,1 C 15,2 C 52 % 81 % 1018,5 hPa 0,0 l/m 0,5 km/h (0 Bft) O-NO 67 9,3 C 12,5 C 4,1 km/h (1 Bft)
26.05.2019 04:32 21,9 C 12,5 C 13,2 C 15,2 C 52 % 81 % 1018,5 hPa 0,0 l/m 0,3 km/h (0 Bft) N 360 9,3 C 12,5 C 2,7 km/h (1 Bft)
26.05.2019 04:30 22,0 C 12,6 C 13,2 C 15,2 C 52 % 81 % 1018,6 hPa 0,0 l/m 0,2 km/h (0 Bft) N-NO 22 9,4 C 12,6 C 2,7 km/h (1 Bft)
26.05.2019 04:28 21,9 C 12,6 C 13,3 C 15,2 C 52 % 81 % 1018,6 hPa 0,0 l/m 0,0 km/h (0 Bft) NO 45 9,4 C 12,6 C 0,0 km/h (0 Bft)
26.05.2019 04:26 21,9 C 12,7 C 13,3 C 15,2 C 52 % 81 % 1018,6 hPa 0,0 l/m 0,0 km/h (0 Bft) N 360 9,5 C 12,7 C 0,0 km/h (0 Bft)
26.05.2019 04:24 21,9 C 12,7 C 13,3 C 15,2 C 52 % 81 % 1018,6 hPa 0,0 l/m 0,0 km/h (0 Bft) NW 315 9,5 C 12,7 C 0,0 km/h (0 Bft)
26.05.2019 04:22 21,9 C 12,8 C 13,2 C 15,2 C 52 % 81 % 1018,6 hPa 0,0 l/m 0,2 km/h (0 Bft) N-NW 337 9,6 C 12,8 C 0,0 km/h (0 Bft)
26.05.2019 04:20 21,9 C 12,9 C 13,1 C 15,2 C 52 % 81 % 1018,6 hPa 0,0 l/m 0,2 km/h (0 Bft) N-NW 337 9,7 C 12,9 C 0,0 km/h (0 Bft)
26.05.2019 04:18 22,0 C 12,9 C 13,3 C 15,2 C 52 % 81 % 1018,6 hPa 0,0 l/m 0,2 km/h (0 Bft) N-NW 337 9,7 C 12,9 C 0,0 km/h (0 Bft)
26.05.2019 04:16 21,9 C 13,0 C 13,3 C 15,2 C 52 % 80 % 1018,6 hPa 0,0 l/m 0,5 km/h (0 Bft) N-NW 337 9,6 C 13,0 C 0,0 km/h (0 Bft)
26.05.2019 04:14 22,0 C 13,0 C 13,4 C 15,2 C 52 % 80 % 1018,6 hPa 0,0 l/m 1,1 km/h (1 Bft) N-NW 337 9,6 C 13,0 C 2,3 km/h (1 Bft)
26.05.2019 04:12 21,9 C 13,1 C 13,5 C 15,3 C 52 % 80 % 1018,6 hPa 0,0 l/m 1,8 km/h (1 Bft) N 360 9,7 C 13,1 C 2,3 km/h (1 Bft)
26.05.2019 04:10 21,9 C 13,1 C 13,5 C 15,3 C 52 % 80 % 1018,5 hPa 0,0 l/m 1,9 km/h (1 Bft) N 360 9,7 C 13,1 C 2,5 km/h (1 Bft)
26.05.2019 04:08 21,9 C 13,1 C 13,7 C 15,3 C 52 % 80 % 1018,5 hPa 0,0 l/m 2,1 km/h (1 Bft) NO 45 9,7 C 13,1 C 3,9 km/h (1 Bft)
26.05.2019 04:06 21,9 C 13,2 C 13,6 C 15,3 C 52 % 80 % 1018,5 hPa 0,0 l/m 2,1 km/h (1 Bft) N 360 9,8 C 13,2 C 6,4 km/h (2 Bft)
26.05.2019 04:04 21,9 C 13,2 C 13,7 C 15,3 C 52 % 80 % 1018,5 hPa 0,0 l/m 1,6 km/h (1 Bft) O-NO 67 9,8 C 13,2 C 6,4 km/h (2 Bft)
26.05.2019 04:02 21,9 C 13,3 C 13,9 C 15,3 C 52 % 80 % 1018,5 hPa 0,0 l/m 1,1 km/h (1 Bft) N 360 9,9 C 13,3 C 5,0 km/h (1 Bft)
26.05.2019 04:00 21,9 C 13,3 C 14,0 C 15,3 C 52 % 80 % 1018,5 hPa 0,0 l/m 1,0 km/h (0 Bft) O-NO 67 9,9 C 13,3 C 3,9 km/h (1 Bft)
26.05.2019 03:58 21,9 C 13,4 C 14,1 C 15,3 C 52 % 80 % 1018,5 hPa 0,0 l/m 1,1 km/h (1 Bft) N-NO 22 10,0 C 13,4 C 1,9 km/h (1 Bft)
26.05.2019 03:56 21,9 C 13,4 C 14,2 C 15,3 C 52 % 80 % 1018,5 hPa 0,0 l/m 1,4 km/h (1 Bft) N-NW 337 10,0 C 13,4 C 2,5 km/h (1 Bft)
26.05.2019 03:54 22,0 C 13,4 C 14,2 C 15,3 C 52 % 80 % 1018,5 hPa 0,0 l/m 1,9 km/h (1 Bft) O-NO 67 10,0 C 13,4 C 2,7 km/h (1 Bft)
26.05.2019 03:52 22,0 C 13,5 C 14,3 C 15,3 C 52 % 80 % 1018,5 hPa 0,0 l/m 1,9 km/h (1 Bft) N 360 10,1 C 13,5 C 2,7 km/h (1 Bft)
26.05.2019 03:50 21,9 C 13,5 C 14,3 C 15,3 C 52 % 80 % 1018,4 hPa 0,0 l/m 1,9 km/h (1 Bft) O-NO 67 10,1 C 13,5 C 2,9 km/h (1 Bft)
26.05.2019 03:48 21,9 C 13,5 C 14,3 C 15,3 C 52 % 80 % 1018,4 hPa 0,0 l/m 1,9 km/h (1 Bft) NO 45 10,1 C 13,5 C 4,6 km/h (1 Bft)
26.05.2019 03:46 21,9 C 13,6 C 14,3 C 15,3 C 52 % 80 % 1018,4 hPa 0,0 l/m 2,1 km/h (1 Bft) NO 45 10,2 C 13,6 C 5,2 km/h (1 Bft)
26.05.2019 03:44 21,9 C 13,6 C 14,4 C 15,3 C 52 % 80 % 1018,4 hPa 0,0 l/m 1,8 km/h (1 Bft) N 360 10,2 C 13,6 C 5,2 km/h (1 Bft)
26.05.2019 03:42 21,9 C 13,6 C 14,4 C 15,3 C 52 % 80 % 1018,4 hPa 0,0 l/m 1,9 km/h (1 Bft) O-NO 67 10,2 C 13,6 C 2,7 km/h (1 Bft)
26.05.2019 03:40 21,9 C 13,7 C 14,4 C 15,3 C 52 % 79 % 1018,4 hPa 0,0 l/m 2,3 km/h (1 Bft) N 360 10,1 C 13,7 C 5,8 km/h (2 Bft)
26.05.2019 03:38 21,9 C 13,7 C 14,4 C 15,3 C 52 % 79 % 1018,4 hPa 0,0 l/m 2,4 km/h (1 Bft) NO 45 10,1 C 13,7 C 5,8 km/h (2 Bft)
26.05.2019 03:36 21,9 C 13,7 C 14,5 C 15,3 C 52 % 79 % 1018,4 hPa 0,0 l/m 3,1 km/h (1 Bft) N-NO 22 10,1 C 13,7 C 3,3 km/h (1 Bft)
26.05.2019 03:34 22,0 C 13,8 C 14,5 C 15,3 C 52 % 79 % 1018,4 hPa 0,0 l/m 3,5 km/h (1 Bft) N 360 10,2 C 13,8 C 4,1 km/h (1 Bft)
26.05.2019 03:32 22,0 C 13,8 C 14,5 C 15,3 C 52 % 79 % 1018,4 hPa 0,0 l/m 3,9 km/h (1 Bft) N-NO 22 10,2 C 13,8 C 5,2 km/h (1 Bft)
26.05.2019 03:30 21,9 C 13,8 C 14,5 C 15,3 C 52 % 79 % 1018,4 hPa 0,0 l/m 4,5 km/h (1 Bft) N-NO 22 10,2 C 13,8 C 5,2 km/h (1 Bft)
26.05.2019 03:28 22,0 C 13,8 C 14,5 C 15,3 C 52 % 79 % 1018,4 hPa 0,0 l/m 4,7 km/h (1 Bft) N-NO 22 10,2 C 13,8 C 5,2 km/h (1 Bft)
26.05.2019 03:26 21,9 C 13,8 C 14,5 C 15,3 C 52 % 79 % 1018,4 hPa 0,0 l/m 4,8 km/h (1 Bft) N 360 10,2 C 13,8 C 7,1 km/h (2 Bft)
26.05.2019 03:24 21,9 C 13,8 C 14,5 C 15,3 C 52 % 79 % 1018,4 hPa 0,0 l/m 4,8 km/h (1 Bft) N 360 10,2 C 13,8 C 7,1 km/h (2 Bft)
26.05.2019 03:22 22,0 C 13,9 C 14,5 C 15,4 C 52 % 79 % 1018,4 hPa 0,0 l/m 4,7 km/h (1 Bft) N 360 10,3 C 13,9 C 6,4 km/h (2 Bft)
26.05.2019 03:20 22,0 C 13,9 C 14,6 C 15,4 C 52 % 79 % 1018,4 hPa 0,0 l/m 4,5 km/h (1 Bft) N-NW 337 10,3 C 13,9 C 5,8 km/h (2 Bft)
26.05.2019 03:18 22,0 C 13,9 C 14,6 C 15,4 C 52 % 79 % 1018,4 hPa 0,0 l/m 4,5 km/h (1 Bft) O-NO 67 10,3 C 13,9 C 6,2 km/h (2 Bft)
26.05.2019 03:16 22,0 C 13,9 C 14,6 C 15,4 C 52 % 79 % 1018,4 hPa 0,0 l/m 4,8 km/h (1 Bft) SO 135 10,3 C 13,9 C 6,2 km/h (2 Bft)
26.05.2019 03:14 21,9 C 13,9 C 14,6 C 15,4 C 52 % 79 % 1018,4 hPa 0,0 l/m 5,1 km/h (1 Bft) N-NO 22 10,3 C 13,9 C 7,9 km/h (2 Bft)
26.05.2019 03:12 22,0 C 13,9 C 14,5 C 15,4 C 52 % 79 % 1018,4 hPa 0,0 l/m 5,6 km/h (1 Bft) N 360 10,3 C 13,9 C 7,9 km/h (2 Bft)
26.05.2019 03:10 22,0 C 14,1 C 14,5 C 15,4 C 52 % 79 % 1018,4 hPa 0,0 l/m 4,8 km/h (1 Bft) NO 45 10,5 C 14,1 C 5,8 km/h (2 Bft)
26.05.2019 03:08 22,0 C 14,1 C 14,5 C 15,4 C 52 % 79 % 1018,4 hPa 0,0 l/m 4,8 km/h (1 Bft) NO 45 10,5 C 14,1 C 5,8 km/h (2 Bft)
26.05.2019 03:06 22,0 C 14,1 C 14,5 C 15,4 C 52 % 79 % 1018,4 hPa 0,0 l/m 4,8 km/h (1 Bft) NO 45 10,5 C 14,1 C 5,8 km/h (2 Bft)
26.05.2019 03:04 22,0 C 14,1 C 14,5 C 15,4 C 52 % 79 % 1018,4 hPa 0,0 l/m 4,8 km/h (1 Bft) NO 45 10,5 C 14,1 C 5,8 km/h (2 Bft)
26.05.2019 03:02 22,0 C 14,1 C 14,5 C 15,4 C 52 % 79 % 1018,4 hPa 0,0 l/m 4,8 km/h (1 Bft) NO 45 10,5 C 14,1 C 5,8 km/h (2 Bft)
26.05.2019 03:00 22,0 C 14,1 C 14,5 C 15,4 C 52 % 79 % 1018,4 hPa 0,0 l/m 4,8 km/h (1 Bft) NO 45 10,5 C 14,1 C 11,4 km/h (2 Bft)
26.05.2019 02:58 22,0 C 14,1 C 14,5 C 15,4 C 52 % 79 % 1018,4 hPa 0,0 l/m 5,0 km/h (1 Bft) O-NO 67 10,5 C 14,1 C 11,4 km/h (2 Bft)
26.05.2019 02:56 22,0 C 14,1 C 14,4 C 15,4 C 52 % 78 % 1018,4 hPa 0,0 l/m 5,3 km/h (1 Bft) O-NO 67 10,3 C 14,1 C 11,0 km/h (2 Bft)
26.05.2019 02:54 22,0 C 14,1 C 14,4 C 15,4 C 52 % 78 % 1018,4 hPa 0,0 l/m 5,1 km/h (1 Bft) O-NO 67 10,3 C 14,1 C 11,0 km/h (2 Bft)
26.05.2019 02:52 22,0 C 14,1 C 14,3 C 15,4 C 52 % 78 % 1018,4 hPa 0,0 l/m 4,8 km/h (1 Bft) N-NO 22 10,3 C 14,1 C 6,0 km/h (2 Bft)
26.05.2019 02:50 22,0 C 14,2 C 14,3 C 15,4 C 52 % 79 % 1018,4 hPa 0,0 l/m 5,1 km/h (1 Bft) O-NO 67 10,6 C 14,2 C 8,5 km/h (2 Bft)
26.05.2019 02:48 22,0 C 14,2 C 14,3 C 15,4 C 52 % 78 % 1018,4 hPa 0,0 l/m 5,3 km/h (1 Bft) O-NO 67 10,4 C 14,2 C 12,6 km/h (3 Bft)
26.05.2019 02:46 22,0 C 14,2 C 14,3 C 15,4 C 52 % 78 % 1018,4 hPa 0,0 l/m 5,6 km/h (1 Bft) O-NO 67 10,4 C 14,2 C 12,6 km/h (3 Bft)
26.05.2019 02:44 22,0 C 14,2 C 14,4 C 15,4 C 52 % 78 % 1018,4 hPa 0,0 l/m 5,5 km/h (1 Bft) O-NO 67 10,4 C 14,2 C 6,6 km/h (2 Bft)
26.05.2019 02:42 22,0 C 14,2 C 14,3 C 15,4 C 52 % 78 % 1018,4 hPa 0,0 l/m 6,3 km/h (2 Bft) O 90 10,4 C 14,2 C 6,6 km/h (2 Bft)
26.05.2019 02:40 22,0 C 14,2 C 14,2 C 15,4 C 52 % 78 % 1018,4 hPa 0,0 l/m 6,1 km/h (2 Bft) SO 135 10,4 C 14,2 C 18,7 km/h (3 Bft)
26.05.2019 02:38 22,0 C 14,2 C 14,2 C 15,4 C 52 % 78 % 1018,4 hPa 0,0 l/m 6,6 km/h (2 Bft) NO 45 10,4 C 14,1 C 8,9 km/h (2 Bft)
26.05.2019 02:36 22,0 C 14,2 C 14,3 C 15,4 C 52 % 78 % 1018,4 hPa 0,0 l/m 6,3 km/h (2 Bft) N-NO 22 10,4 C 14,2 C 6,4 km/h (2 Bft)
26.05.2019 02:34 22,0 C 14,2 C 14,4 C 15,4 C 52 % 78 % 1018,4 hPa 0,0 l/m 6,1 km/h (2 Bft) NO 45 10,4 C 14,2 C 12,4 km/h (3 Bft)
26.05.2019 02:32 22,0 C 14,2 C 14,5 C 15,4 C 52 % 78 % 1018,4 hPa 0,0 l/m 6,3 km/h (2 Bft) O 90 10,4 C 14,2 C 12,4 km/h (3 Bft)
26.05.2019 02:30 22,0 C 14,2 C 14,5 C 15,4 C 52 % 78 % 1018,6 hPa 0,0 l/m 6,0 km/h (2 Bft) NO 45 10,4 C 14,2 C 18,3 km/h (3 Bft)
26.05.2019 02:28 22,0 C 14,3 C 14,4 C 15,4 C 52 % 78 % 1018,6 hPa 0,0 l/m 5,3 km/h (1 Bft) O-NO 67 10,5 C 14,3 C 12,4 km/h (3 Bft)
26.05.2019 02:26 22,0 C 14,3 C 14,4 C 15,4 C 52 % 78 % 1018,6 hPa 0,0 l/m 4,8 km/h (1 Bft) O 90 10,5 C 14,3 C 8,1 km/h (2 Bft)
26.05.2019 02:24 22,0 C 14,3 C 14,5 C 15,5 C 52 % 78 % 1018,6 hPa 0,0 l/m 4,5 km/h (1 Bft) NO 45 10,5 C 14,3 C 8,7 km/h (2 Bft)
26.05.2019 02:22 22,0 C 14,3 C 14,5 C 15,5 C 52 % 77 % 1018,6 hPa 0,0 l/m 3,4 km/h (1 Bft) O-NO 67 10,3 C 14,3 C 8,7 km/h (2 Bft)
26.05.2019 02:20 22,0 C 14,3 C 14,5 C 15,5 C 52 % 77 % 1018,6 hPa 0,0 l/m 2,7 km/h (1 Bft) N 360 10,3 C 14,3 C 11,2 km/h (2 Bft)
26.05.2019 02:18 22,0 C 14,3 C 14,5 C 15,5 C 52 % 77 % 1018,6 hPa 0,0 l/m 3,2 km/h (1 Bft) NO 45 10,3 C 14,3 C 9,7 km/h (2 Bft)
26.05.2019 02:16 22,0 C 14,4 C 14,5 C 15,5 C 52 % 77 % 1018,6 hPa 0,0 l/m 3,2 km/h (1 Bft) O-NO 67 10,4 C 14,4 C 8,9 km/h (2 Bft)
26.05.2019 02:14 22,0 C 14,4 C 14,5 C 15,5 C 52 % 77 % 1018,6 hPa 0,0 l/m 3,1 km/h (1 Bft) SO 135 10,4 C 14,4 C 2,9 km/h (1 Bft)
26.05.2019 02:12 22,0 C 14,4 C 14,6 C 15,5 C 52 % 77 % 1018,6 hPa 0,0 l/m 4,2 km/h (1 Bft) N-NW 337 10,4 C 14,4 C 7,3 km/h (2 Bft)
26.05.2019 02:10 22,0 C 14,4 C 14,6 C 15,5 C 52 % 76 % 1018,6 hPa 0,0 l/m 4,7 km/h (1 Bft) NO 45 10,2 C 14,4 C 7,3 km/h (2 Bft)
26.05.2019 02:08 22,0 C 14,4 C 14,5 C 15,5 C 52 % 76 % 1018,6 hPa 0,0 l/m 4,8 km/h (1 Bft) NO 45 10,2 C 14,4 C 8,1 km/h (2 Bft)
26.05.2019 02:06 22,0 C 14,4 C 14,5 C 15,5 C 52 % 76 % 1018,6 hPa 0,0 l/m 4,5 km/h (1 Bft) O-NO 67 10,2 C 14,4 C 8,1 km/h (2 Bft)
26.05.2019 02:04 22,0 C 14,4 C 14,4 C 15,5 C 52 % 76 % 1018,6 hPa 0,0 l/m 4,2 km/h (1 Bft) NO 45 10,2 C 14,4 C 7,3 km/h (2 Bft)
26.05.2019 02:02 22,0 C 14,4 C 14,4 C 15,5 C 52 % 76 % 1018,6 hPa 0,0 l/m 3,4 km/h (1 Bft) NO 45 10,2 C 14,4 C 9,3 km/h (2 Bft)
26.05.2019 02:00 22,0 C 14,4 C 14,5 C 15,5 C 52 % 76 % 1018,6 hPa 0,0 l/m 2,9 km/h (1 Bft) N-NO 22 10,2 C 14,4 C 9,3 km/h (2 Bft)
26.05.2019 01:58 22,0 C 14,4 C 14,5 C 15,5 C 52 % 76 % 1018,6 hPa 0,0 l/m 2,6 km/h (1 Bft) O-NO 67 10,2 C 14,4 C 7,0 km/h (2 Bft)
26.05.2019 01:56 22,0 C 14,4 C 14,5 C 15,5 C 52 % 76 % 1018,6 hPa 0,0 l/m 2,4 km/h (1 Bft) O-NO 67 10,2 C 14,4 C 6,2 km/h (2 Bft)
26.05.2019 01:54 22,0 C 14,4 C 14,5 C 15,5 C 52 % 76 % 1018,6 hPa 0,0 l/m 2,3 km/h (1 Bft) SO 135 10,2 C 14,4 C 3,3 km/h (1 Bft)
26.05.2019 01:52 22,0 C 14,4 C 14,5 C 15,5 C 52 % 76 % 1018,6 hPa 0,0 l/m 2,6 km/h (1 Bft) N 360 10,2 C 14,4 C 7,0 km/h (2 Bft)
26.05.2019 01:50 22,0 C 14,4 C 14,5 C 15,5 C 52 % 76 % 1018,4 hPa 0,0 l/m 2,9 km/h (1 Bft) N-NO 22 10,2 C 14,4 C 7,0 km/h (2 Bft)
26.05.2019 01:48 22,0 C 14,4 C 14,4 C 15,5 C 52 % 76 % 1018,4 hPa 0,0 l/m 2,7 km/h (1 Bft) NO 45 10,2 C 14,4 C 5,4 km/h (1 Bft)
26.05.2019 01:46 22,0 C 14,4 C 14,4 C 15,5 C 52 % 75 % 1018,4 hPa 0,0 l/m 2,6 km/h (1 Bft) O-NO 67 10,0 C 14,4 C 6,8 km/h (2 Bft)
26.05.2019 01:44 22,0 C 14,4 C 14,4 C 15,5 C 52 % 75 % 1018,4 hPa 0,0 l/m 2,4 km/h (1 Bft) O-NO 67 10,0 C 14,4 C 6,8 km/h (2 Bft)
26.05.2019 01:42 22,0 C 14,4 C 14,3 C 15,5 C 52 % 75 % 1018,4 hPa 0,0 l/m 2,6 km/h (1 Bft) O-NO 67 10,0 C 14,4 C 6,6 km/h (2 Bft)
26.05.2019 01:40 22,0 C 14,4 C 14,3 C 15,5 C 52 % 75 % 1018,4 hPa 0,0 l/m 2,6 km/h (1 Bft) O-NO 67 10,0 C 14,4 C 4,8 km/h (1 Bft)
26.05.2019 01:38 22,0 C 14,5 C 14,4 C 15,5 C 52 % 75 % 1018,4 hPa 0,0 l/m 2,7 km/h (1 Bft) O 90 10,1 C 14,5 C 3,5 km/h (1 Bft)
26.05.2019 01:36 22,0 C 14,5 C 14,4 C 15,5 C 52 % 75 % 1018,4 hPa 0,0 l/m 3,1 km/h (1 Bft) O-SO 112 10,1 C 14,5 C 3,5 km/h (1 Bft)
26.05.2019 01:34 22,0 C 14,5 C 14,3 C 15,5 C 52 % 75 % 1018,4 hPa 0,0 l/m 3,1 km/h (1 Bft) N-NW 337 10,1 C 14,5 C 6,6 km/h (2 Bft)
26.05.2019 01:32 22,0 C 14,5 C 14,2 C 15,5 C 52 % 75 % 1018,4 hPa 0,0 l/m 3,1 km/h (1 Bft) O-NO 67 10,1 C 14,5 C 6,6 km/h (2 Bft)
26.05.2019 01:30 22,0 C 14,5 C 14,2 C 15,5 C 52 % 75 % 1018,5 hPa 0,0 l/m 3,1 km/h (1 Bft) O 90 10,1 C 14,5 C 4,6 km/h (1 Bft)
26.05.2019 01:28 22,0 C 14,5 C 14,2 C 15,5 C 52 % 75 % 1018,5 hPa 0,0 l/m 2,7 km/h (1 Bft) NO 45 10,1 C 14,5 C 4,6 km/h (1 Bft)
26.05.2019 01:26 22,0 C 14,5 C 14,2 C 15,6 C 52 % 75 % 1018,5 hPa 0,0 l/m 2,4 km/h (1 Bft) NW 315 10,1 C 14,5 C 4,6 km/h (1 Bft)
26.05.2019 01:24 22,0 C 14,5 C 14,2 C 15,6 C 52 % 75 % 1018,5 hPa 0,0 l/m 2,6 km/h (1 Bft) O 90 10,1 C 14,5 C 5,8 km/h (2 Bft)
26.05.2019 01:22 22,0 C 14,5 C 14,3 C 15,6 C 52 % 74 % 1018,5 hPa 0,0 l/m 2,4 km/h (1 Bft) O-SO 112 9,9 C 14,5 C 5,8 km/h (2 Bft)
26.05.2019 01:20 22,0 C 14,5 C 14,5 C 15,6 C 52 % 74 % 1018,5 hPa 0,0 l/m 2,4 km/h (1 Bft) O-NO 67 9,9 C 14,5 C 4,6 km/h (1 Bft)
26.05.2019 01:18 22,0 C 14,5 C 14,5 C 15,6 C 52 % 73 % 1018,5 hPa 0,0 l/m 1,9 km/h (1 Bft) NO 45 9,7 C 14,5 C 3,7 km/h (1 Bft)
26.05.2019 01:16 22,0 C 14,5 C 14,5 C 15,6 C 52 % 73 % 1018,5 hPa 0,0 l/m 1,8 km/h (1 Bft) N 360 9,7 C 14,5 C 2,7 km/h (1 Bft)
26.05.2019 01:14 22,0 C 14,6 C 14,5 C 15,6 C 52 % 73 % 1018,5 hPa 0,0 l/m 1,6 km/h (1 Bft) N-NO 22 9,8 C 14,6 C 4,1 km/h (1 Bft)
26.05.2019 01:12 22,0 C 14,6 C 14,6 C 15,6 C 52 % 73 % 1018,5 hPa 0,0 l/m 1,1 km/h (1 Bft) N-NO 22 9,8 C 14,6 C 4,1 km/h (1 Bft)
26.05.2019 01:10 22,0 C 14,6 C 14,6 C 15,6 C 52 % 73 % 1018,5 hPa 0,0 l/m 0,8 km/h (0 Bft) O 90 9,8 C 14,6 C 5,0 km/h (1 Bft)
26.05.2019 01:08 22,0 C 14,6 C 14,7 C 15,6 C 52 % 73 % 1018,5 hPa 0,0 l/m 0,6 km/h (0 Bft) O-NO 67 9,8 C 14,6 C 5,0 km/h (1 Bft)
26.05.2019 01:06 22,0 C 14,7 C 14,7 C 15,6 C 52 % 73 % 1018,5 hPa 0,0 l/m 0,3 km/h (0 Bft) O-NO 67 9,9 C 14,7 C 0,0 km/h (0 Bft)
26.05.2019 01:04 22,0 C 14,7 C 14,8 C 15,6 C 52 % 73 % 1018,5 hPa 0,0 l/m 0,2 km/h (0 Bft) SO 135 9,9 C 14,7 C 2,3 km/h (1 Bft)
26.05.2019 01:02 22,0 C 14,7 C 14,7 C 15,6 C 52 % 73 % 1018,5 hPa 0,0 l/m 0,2 km/h (0 Bft) O 90 9,9 C 14,7 C 2,3 km/h (1 Bft)
26.05.2019 01:00 22,0 C 14,7 C 14,7 C 15,6 C 52 % 73 % 1018,5 hPa 0,0 l/m 0,2 km/h (0 Bft) O 90 9,9 C 14,7 C 0,0 km/h (0 Bft)
26.05.2019 00:58 22,0 C 14,8 C 14,8 C 15,6 C 52 % 73 % 1018,5 hPa 0,0 l/m 0,2 km/h (0 Bft) W 270 10,0 C 14,8 C 0,0 km/h (0 Bft)
26.05.2019 00:56 22,0 C 14,8 C 14,8 C 15,6 C 52 % 73 % 1018,5 hPa 0,0 l/m 0,2 km/h (0 Bft) O-NO 67 10,0 C 14,8 C 0,0 km/h (0 Bft)
26.05.2019 00:54 22,0 C 14,8 C 14,8 C 15,6 C 52 % 73 % 1018,5 hPa 0,0 l/m 0,0 km/h (0 Bft) NO 45 10,0 C 14,8 C 0,0 km/h (0 Bft)
26.05.2019 00:52 22,0 C 14,9 C 14,8 C 15,6 C 52 % 72 % 1018,5 hPa 0,0 l/m 0,2 km/h (0 Bft) O 90 9,9 C 14,9 C 0,0 km/h (0 Bft)
26.05.2019 00:50 22,0 C 14,9 C 14,8 C 15,6 C 52 % 72 % 1018,5 hPa 0,0 l/m 0,0 km/h (0 Bft) O-NO 67 9,9 C 14,9 C 0,0 km/h (0 Bft)
26.05.2019 00:48 22,0 C 14,9 C 14,9 C 15,6 C 52 % 72 % 1018,5 hPa 0,0 l/m 0,2 km/h (0 Bft) N 360 9,9 C 14,9 C 0,0 km/h (0 Bft)
26.05.2019 00:46 22,0 C 15,0 C 14,9 C 15,5 C 52 % 72 % 1018,5 hPa 0,0 l/m 0,2 km/h (0 Bft) O-NO 67 10,0 C 15,0 C 0,0 km/h (0 Bft)
26.05.2019 00:44 22,0 C 15,0 C 14,9 C 15,5 C 52 % 72 % 1018,5 hPa 0,0 l/m 0,2 km/h (0 Bft) N 360 10,0 C 15,0 C 2,1 km/h (1 Bft)
26.05.2019 00:42 22,0 C 15,0 C 14,9 C 15,5 C 52 % 72 % 1018,5 hPa 0,0 l/m 0,3 km/h (0 Bft) NO 45 10,0 C 15,0 C 2,1 km/h (1 Bft)
26.05.2019 00:40 22,0 C 15,1 C 14,9 C 15,5 C 52 % 72 % 1018,5 hPa 0,0 l/m 0,6 km/h (0 Bft) O-NO 67 10,1 C 15,1 C 0,0 km/h (0 Bft)
26.05.2019 00:38 22,0 C 15,1 C 14,9 C 15,6 C 52 % 72 % 1018,5 hPa 0,0 l/m 1,0 km/h (0 Bft) N-NW 337 10,1 C 15,1 C 0,0 km/h (0 Bft)
26.05.2019 00:36 22,0 C 15,2 C 14,8 C 15,6 C 52 % 72 % 1018,5 hPa 0,0 l/m 1,8 km/h (1 Bft) O-NO 67 10,2 C 15,2 C 0,0 km/h (0 Bft)
26.05.2019 00:34 22,0 C 15,2 C 14,7 C 15,6 C 52 % 72 % 1018,5 hPa 0,0 l/m 2,4 km/h (1 Bft) N 360 10,2 C 15,2 C 1,9 km/h (1 Bft)
26.05.2019 00:32 22,0 C 15,2 C 14,7 C 15,6 C 52 % 72 % 1018,5 hPa 0,0 l/m 3,2 km/h (1 Bft) NO 45 10,2 C 15,2 C 1,9 km/h (1 Bft)
26.05.2019 00:30 22,0 C 15,2 C 14,7 C 15,6 C 52 % 72 % 1018,4 hPa 0,0 l/m 3,7 km/h (1 Bft) SO 135 10,2 C 15,2 C 10,6 km/h (2 Bft)
26.05.2019 00:28 22,0 C 15,2 C 14,7 C 15,6 C 52 % 72 % 1018,4 hPa 0,0 l/m 4,2 km/h (1 Bft) O-NO 67 10,2 C 15,2 C 9,7 km/h (2 Bft)
26.05.2019 00:26 22,0 C 15,2 C 14,7 C 15,6 C 52 % 72 % 1018,4 hPa 0,0 l/m 4,5 km/h (1 Bft) O 90 10,2 C 15,2 C 9,7 km/h (2 Bft)
26.05.2019 00:24 22,0 C 15,3 C 14,7 C 15,6 C 52 % 72 % 1018,4 hPa 0,0 l/m 4,0 km/h (1 Bft) O-NO 67 10,3 C 15,3 C 4,2 km/h (1 Bft)
26.05.2019 00:22 22,0 C 15,2 C 14,7 C 15,6 C 52 % 72 % 1018,4 hPa 0,0 l/m 3,4 km/h (1 Bft) O 90 10,2 C 15,2 C 8,5 km/h (2 Bft)
26.05.2019 00:20 22,0 C 15,3 C 14,8 C 15,6 C 52 % 71 % 1018,4 hPa 0,0 l/m 3,1 km/h (1 Bft) O-SO 112 10,1 C 15,3 C 9,8 km/h (2 Bft)
26.05.2019 00:18 22,0 C 15,3 C 14,8 C 15,6 C 52 % 71 % 1018,4 hPa 0,0 l/m 2,9 km/h (1 Bft) NO 45 10,1 C 15,3 C 9,8 km/h (2 Bft)
26.05.2019 00:16 22,0 C 15,3 C 14,8 C 15,6 C 52 % 71 % 1018,4 hPa 0,0 l/m 2,4 km/h (1 Bft) O-NO 67 10,1 C 15,3 C 7,7 km/h (2 Bft)
26.05.2019 00:14 22,0 C 15,2 C 14,9 C 15,6 C 52 % 71 % 1018,4 hPa 0,0 l/m 1,9 km/h (1 Bft) N-NW 337 10,0 C 15,2 C 3,7 km/h (1 Bft)
26.05.2019 00:12 22,0 C 15,2 C 14,9 C 15,6 C 52 % 71 % 1018,4 hPa 0,0 l/m 1,8 km/h (1 Bft) N-NW 337 10,0 C 15,2 C 4,4 km/h (1 Bft)
26.05.2019 00:10 22,1 C 15,3 C 14,9 C 15,6 C 52 % 71 % 1018,3 hPa 0,0 l/m 2,3 km/h (1 Bft) O 90 10,1 C 15,3 C 4,8 km/h (1 Bft)
26.05.2019 00:08 22,0 C 15,3 C 15,0 C 15,6 C 52 % 71 % 1018,3 hPa 0,0 l/m 2,6 km/h (1 Bft) O-NO 67 10,1 C 15,3 C 4,8 km/h (1 Bft)
26.05.2019 00:06 22,1 C 15,4 C 15,0 C 15,6 C 52 % 70 % 1018,3 hPa 0,0 l/m 2,6 km/h (1 Bft) O-NO 67 10,0 C 15,4 C 3,3 km/h (1 Bft)
26.05.2019 00:04 22,1 C 15,4 C 15,0 C 15,6 C 52 % 70 % 1018,3 hPa 0,0 l/m 2,6 km/h (1 Bft) O-NO 67 10,0 C 15,4 C 3,3 km/h (1 Bft)
26.05.2019 00:02 22,0 C 15,4 C 15,0 C 15,6 C 52 % 70 % 1018,3 hPa 0,0 l/m 2,6 km/h (1 Bft) O-NO 67 10,0 C 15,4 C 5,8 km/h (2 Bft)
26.05.2019 00:00 22,0 C 15,4 C 15,0 C 15,6 C 52 % 70 % 1018,3 hPa 0,0 l/m 2,6 km/h (1 Bft) N-NO 22 10,0 C 15,4 C 6,8 km/h (2 Bft)
_ Min-Zeit 03:14 04:42 04:44 07:34 00:00 15:32 18:52 - 00:50 - - 04:32 04:42 00:36
Minimum _ 21,9 C 12,4 C 12,3 C 14,9 C 52 % 44 % 1016,4 hPa - 0,0 km/h (0 Bft) - - 9,3 C 12,4 C 0,0 km/h (0 Bft)
_ Max-Zeit 00:04 16:24 14:20 17:42 13:00 04:52 10:12 00:00 10:36 - - 14:40 16:24 08:18
Maximum _ 22,1 C 23,5 C 25,5 C 16,9 C 53 % 83 % 1019,6 hPa 0,0 l/m 9,8 km/h
O (2 Bft)
- - 14,0 C 23,5 C 24,3 km/h
NO (4 Bft)
Durchschnitt _ 22,0 C 18,1 C 18,3 C 15,7 C 52 % 64 % 1018,3 hPa #0,0 l/m 4,6 km/h (1 Bft) O-NO - 11,0 C 18,0 C 8,3 km/h (2 Bft)